Wetterdaten: Mittwoch, 02.03.2022
Datum Zeit Temp. Aussen Temp. o. S. Temp +5cm Feuchte Auss Luftdruck Regen Sonnenschein Regendauer Solar Windben Empfang
02.03.2022 00:00 5,5 C 5,0 C 1,1 C 65 % 1027,2 hPa 0,0 l/m 0 min 0 min 0 W/m 6,4 km/h (2 Bft) 95,74 %
02.03.2022 00:02 5,5 C 5,0 C 1,1 C 64 % 1027,2 hPa 0,0 l/m 0 min 0 min 0 W/m 12,9 km/h (3 Bft) 93,02 %
02.03.2022 00:04 5,4 C 5,0 C 1,1 C 65 % 1027,2 hPa 0,0 l/m 0 min 0 min 0 W/m 6,4 km/h (2 Bft) 95,74 %
02.03.2022 00:08 5,4 C 4,4 C 1,1 C 65 % 1027,2 hPa 0,0 l/m 0 min 0 min 0 W/m 6,4 km/h (2 Bft) 94,74 %
02.03.2022 00:10 5,4 C 4,4 C 1,1 C 64 % 1027,2 hPa 0,0 l/m 0 min 0 min 0 W/m 6,4 km/h (2 Bft) 93,62 %
02.03.2022 00:12 5,4 C 4,4 C 1,1 C 65 % 1027,1 hPa 0,0 l/m 0 min 0 min 0 W/m 9,7 km/h (2 Bft) 93,48 %
02.03.2022 00:14 5,4 C 4,4 C 1,1 C 65 % 1027,1 hPa 0,0 l/m 0 min 0 min 0 W/m 3,2 km/h (1 Bft) 93,88 %
02.03.2022 00:16 5,4 C 4,4 C 0,6 C 65 % 1027,1 hPa 0,0 l/m 0 min 0 min 0 W/m 3,2 km/h (1 Bft) 95,74 %
02.03.2022 00:18 5,4 C 4,4 C 0,6 C 65 % 1027,2 hPa 0,0 l/m 0 min 0 min 0 W/m 6,4 km/h (2 Bft) 93,62 %
02.03.2022 00:20 5,3 C 4,4 C 0,6 C 65 % 1027,1 hPa 0,0 l/m 0 min 0 min 0 W/m 3,2 km/h (1 Bft) 91,49 %
02.03.2022 00:22 5,3 C 4,4 C 0,6 C 65 % 1027,1 hPa 0,0 l/m 0 min 0 min 0 W/m 6,4 km/h (2 Bft) 89,36 %
02.03.2022 00:24 5,3 C 4,4 C 0,6 C 65 % 1027,1 hPa 0,0 l/m 0 min 0 min 0 W/m 6,4 km/h (2 Bft) 97,83 %
02.03.2022 00:26 5,3 C 4,4 C 0,6 C 65 % 1027,0 hPa 0,0 l/m 0 min 0 min 0 W/m 9,7 km/h (2 Bft) 93,62 %
02.03.2022 00:28 5,2 C 4,4 C 0,6 C 65 % 1027,0 hPa 0,0 l/m 0 min 0 min 0 W/m 6,4 km/h (2 Bft) 95,74 %
02.03.2022 00:30 5,2 C 4,4 C 0,6 C 65 % 1027,0 hPa 0,0 l/m 0 min 0 min 0 W/m 6,4 km/h (2 Bft) 95,74 %
02.03.2022 00:32 5,2 C 4,4 C 0,6 C 66 % 1027,0 hPa 0,0 l/m 0 min 0 min 0 W/m 3,2 km/h (1 Bft) 93,62 %
02.03.2022 00:34 5,2 C 4,4 C 0,6 C 66 % 1027,0 hPa 0,0 l/m 0 min 0 min 0 W/m 6,4 km/h (2 Bft) 97,87 %
02.03.2022 00:36 5,2 C 4,4 C 0,6 C 66 % 1027,0 hPa 0,0 l/m 0 min 0 min 0 W/m 6,4 km/h (2 Bft) 95,65 %
02.03.2022 00:38 5,1 C 4,4 C 0,6 C 66 % 1026,9 hPa 0,0 l/m 0 min 0 min 0 W/m 3,2 km/h (1 Bft) 97,87 %
02.03.2022 00:40 5,1 C 4,4 C 0,6 C 66 % 1027,0 hPa 0,0 l/m 0 min 0 min 0 W/m 3,2 km/h (1 Bft) 100,00 %
02.03.2022 00:42 5,1 C 3,9 C 0,6 C 66 % 1027,1 hPa 0,0 l/m 0 min 0 min 0 W/m 3,2 km/h (1 Bft) 95,74 %
02.03.2022 00:44 5,1 C 3,9 C 0,6 C 66 % 1027,1 hPa 0,0 l/m 0 min 0 min 0 W/m 6,4 km/h (2 Bft) 98,15 %
02.03.2022 00:46 5,1 C 3,9 C 0,6 C 66 % 1027,1 hPa 0,0 l/m 0 min 0 min 0 W/m 3,2 km/h (1 Bft) 98,00 %
02.03.2022 00:48 5,0 C 3,9 C 0,0 C 66 % 1027,1 hPa 0,0 l/m 0 min 0 min 0 W/m 3,2 km/h (1 Bft) 97,92 %
02.03.2022 00:50 5,0 C 3,9 C 0,0 C 66 % 1027,1 hPa 0,0 l/m 0 min 0 min 0 W/m 3,2 km/h (1 Bft) 97,87 %
02.03.2022 00:52 5,0 C 3,9 C 0,0 C 66 % 1027,1 hPa 0,0 l/m 0 min 0 min 0 W/m 3,2 km/h (1 Bft) 97,87 %
02.03.2022 00:54 4,9 C 3,3 C 0,0 C 67 % 1027,1 hPa 0,0 l/m 0 min 0 min 0 W/m 3,2 km/h (1 Bft) 95,74 %
02.03.2022 00:56 4,9 C 3,3 C 0,0 C 67 % 1027,1 hPa 0,0 l/m 0 min 0 min 0 W/m 3,2 km/h (1 Bft) 97,87 %
02.03.2022 00:58 4,9 C 3,3 C -0,6 C 67 % 1027,1 hPa 0,0 l/m 0 min 0 min 0 W/m 3,2 km/h (1 Bft) 95,74 %
02.03.2022 01:00 4,8 C 3,3 C -0,6 C 67 % 1027,1 hPa 0,0 l/m 0 min 0 min 0 W/m 3,2 km/h (1 Bft) 97,30 %
02.03.2022 01:02 4,8 C 3,3 C -0,6 C 68 % 1027,0 hPa 0,0 l/m 0 min 0 min 0 W/m 3,2 km/h (1 Bft) 100,00 %
02.03.2022 01:04 4,7 C 3,3 C -0,6 C 68 % 1027,0 hPa 0,0 l/m 0 min 0 min 0 W/m 6,4 km/h (2 Bft) 100,00 %
02.03.2022 01:06 4,6 C 3,3 C -0,6 C 68 % 1026,9 hPa 0,0 l/m 0 min 0 min 0 W/m 3,2 km/h (1 Bft) 100,00 %
02.03.2022 01:08 4,6 C 3,3 C -0,6 C 68 % 1026,9 hPa 0,0 l/m 0 min 0 min 0 W/m 3,2 km/h (1 Bft) 100,00 %
02.03.2022 01:10 4,5 C 3,3 C -0,6 C 68 % 1026,9 hPa 0,0 l/m 0 min 0 min 0 W/m 3,2 km/h (1 Bft) 100,00 %
02.03.2022 01:12 4,4 C 3,3 C -0,6 C 68 % 1026,9 hPa 0,0 l/m 0 min 0 min 0 W/m 3,2 km/h (1 Bft) 100,00 %
02.03.2022 01:14 4,4 C 3,3 C -0,6 C 69 % 1026,9 hPa 0,0 l/m 0 min 0 min 0 W/m 3,2 km/h (1 Bft) 97,87 %
02.03.2022 01:16 4,3 C 3,3 C -0,6 C 69 % 1026,9 hPa 0,0 l/m 0 min 0 min 0 W/m 3,2 km/h (1 Bft) 100,00 %
02.03.2022 01:18 4,3 C 3,3 C -0,6 C 68 % 1026,9 hPa 0,0 l/m 0 min 0 min 0 W/m 6,4 km/h (2 Bft) 100,00 %
02.03.2022 01:20 4,3 C 3,3 C 0,0 C 68 % 1026,8 hPa 0,0 l/m 0 min 0 min 0 W/m 6,4 km/h (2 Bft) 100,00 %
02.03.2022 01:22 4,3 C 3,3 C 0,0 C 68 % 1026,9 hPa 0,0 l/m 0 min 0 min 0 W/m 3,2 km/h (1 Bft) 96,23 %
02.03.2022 01:24 4,3 C 3,3 C 0,0 C 68 % 1026,9 hPa 0,0 l/m 0 min 0 min 0 W/m 3,2 km/h (1 Bft) 100,00 %
02.03.2022 01:26 4,3 C 3,3 C 0,0 C 68 % 1026,9 hPa 0,0 l/m 0 min 0 min 0 W/m 3,2 km/h (1 Bft) 100,00 %
02.03.2022 01:28 4,3 C 3,3 C 0,0 C 68 % 1026,9 hPa 0,0 l/m 0 min 0 min 0 W/m 3,2 km/h (1 Bft) 100,00 %
02.03.2022 01:30 4,3 C 3,3 C 0,0 C 68 % 1026,9 hPa 0,0 l/m 0 min 0 min 0 W/m 3,2 km/h (1 Bft) 100,00 %
02.03.2022 01:32 4,3 C 3,3 C 0,0 C 68 % 1026,9 hPa 0,0 l/m 0 min 0 min 0 W/m 0,0 km/h (0 Bft) 100,00 %
02.03.2022 01:34 4,2 C 3,3 C 0,0 C 68 % 1027,0 hPa 0,0 l/m 0 min 0 min 0 W/m 3,2 km/h (1 Bft) 100,00 %
02.03.2022 01:36 4,2 C 3,3 C 0,0 C 68 % 1026,9 hPa 0,0 l/m 0 min 0 min 0 W/m 3,2 km/h (1 Bft) 100,00 %
02.03.2022 01:38 4,2 C 3,3 C 0,0 C 68 % 1026,9 hPa 0,0 l/m 0 min 0 min 0 W/m 3,2 km/h (1 Bft) 100,00 %
02.03.2022 01:40 4,2 C 3,3 C 0,0 C 68 % 1026,9 hPa 0,0 l/m 0 min 0 min 0 W/m 0,0 km/h (0 Bft) 97,87 %
02.03.2022 01:42 4,2 C 3,3 C 0,0 C 68 % 1026,9 hPa 0,0 l/m 0 min 0 min 0 W/m 0,0 km/h (0 Bft) 95,74 %
02.03.2022 01:44 4,2 C 3,3 C -0,6 C 69 % 1026,9 hPa 0,0 l/m 0 min 0 min 0 W/m 3,2 km/h (1 Bft) 97,87 %
02.03.2022 01:46 4,2 C 3,3 C -0,6 C 69 % 1026,8 hPa 0,0 l/m 0 min 0 min 0 W/m 3,2 km/h (1 Bft) 97,56 %
02.03.2022 01:48 4,2 C 3,3 C -0,6 C 69 % 1026,8 hPa 0,0 l/m 0 min 0 min 0 W/m 3,2 km/h (1 Bft) 98,08 %
02.03.2022 01:50 4,2 C 3,3 C -0,6 C 70 % 1026,8 hPa 0,0 l/m 0 min 0 min 0 W/m 3,2 km/h (1 Bft) 97,87 %
02.03.2022 01:52 4,1 C 3,3 C -0,6 C 70 % 1026,7 hPa 0,0 l/m 0 min 0 min 0 W/m 3,2 km/h (1 Bft) 97,87 %
02.03.2022 01:54 4,1 C 3,3 C -0,6 C 70 % 1026,7 hPa 0,0 l/m 0 min 0 min 0 W/m 3,2 km/h (1 Bft) 97,87 %
02.03.2022 01:56 4,1 C 3,3 C -0,6 C 69 % 1026,7 hPa 0,0 l/m 0 min 0 min 0 W/m 3,2 km/h (1 Bft) 95,12 %
02.03.2022 01:58 4,1 C 2,8 C -0,6 C 69 % 1026,7 hPa 0,0 l/m 0 min 0 min 0 W/m 3,2 km/h (1 Bft) 97,87 %
02.03.2022 02:00 4,0 C 2,8 C -0,6 C 68 % 1026,6 hPa 0,0 l/m 0 min 0 min 0 W/m 3,2 km/h (1 Bft) 95,74 %
02.03.2022 02:02 4,0 C 2,8 C -0,6 C 68 % 1026,6 hPa 0,0 l/m 0 min 0 min 0 W/m 6,4 km/h (2 Bft) 94,23 %
02.03.2022 02:04 3,9 C 2,8 C -0,6 C 68 % 1026,7 hPa 0,0 l/m 0 min 0 min 0 W/m 3,2 km/h (1 Bft) 95,74 %
02.03.2022 02:06 3,9 C 2,8 C -0,6 C 68 % 1026,7 hPa 0,0 l/m 0 min 0 min 0 W/m 0,0 km/h (0 Bft) 97,87 %
02.03.2022 02:08 3,9 C 2,8 C -0,6 C 68 % 1026,6 hPa 0,0 l/m 0 min 0 min 0 W/m 0,0 km/h (0 Bft) 97,87 %
02.03.2022 02:10 3,9 C 2,8 C -1,1 C 68 % 1026,7 hPa 0,0 l/m 0 min 0 min 0 W/m 0,0 km/h (0 Bft) 97,87 %
02.03.2022 02:12 3,9 C 2,8 C -1,1 C 68 % 1026,6 hPa 0,0 l/m 0 min 0 min 0 W/m 0,0 km/h (0 Bft) 97,83 %
02.03.2022 02:14 3,8 C 2,8 C -1,1 C 68 % 1026,4 hPa 0,0 l/m 0 min 0 min 0 W/m 3,2 km/h (1 Bft) 97,87 %
02.03.2022 02:16 3,8 C 2,8 C -1,1 C 68 % 1026,5 hPa 0,0 l/m 0 min 0 min 0 W/m 3,2 km/h (1 Bft) 97,56 %
02.03.2022 02:18 3,8 C 2,8 C -1,1 C 68 % 1026,4 hPa 0,0 l/m 0 min 0 min 0 W/m 3,2 km/h (1 Bft) 96,23 %
02.03.2022 02:20 3,8 C 2,8 C -1,1 C 67 % 1026,4 hPa 0,0 l/m 0 min 0 min 0 W/m 3,2 km/h (1 Bft) 97,87 %
02.03.2022 02:22 3,7 C 2,8 C -1,1 C 67 % 1026,4 hPa 0,0 l/m 0 min 0 min 0 W/m 3,2 km/h (1 Bft) 97,83 %
02.03.2022 02:24 3,7 C 2,8 C -1,1 C 67 % 1026,4 hPa 0,0 l/m 0 min 0 min 0 W/m 3,2 km/h (1 Bft) 97,87 %
02.03.2022 02:26 3,7 C 2,8 C -1,1 C 67 % 1026,3 hPa 0,0 l/m 0 min 0 min 0 W/m 3,2 km/h (1 Bft) 97,56 %
02.03.2022 02:28 3,6 C 2,2 C -1,1 C 68 % 1026,4 hPa 0,0 l/m 0 min 0 min 0 W/m 0,0 km/h (0 Bft) 98,11 %
02.03.2022 02:30 3,6 C 2,2 C -1,1 C 68 % 1026,4 hPa 0,0 l/m 0 min 0 min 0 W/m 0,0 km/h (0 Bft) 97,87 %
02.03.2022 02:32 3,6 C 2,2 C -1,1 C 68 % 1026,3 hPa 0,0 l/m 0 min 0 min 0 W/m 3,2 km/h (1 Bft) 95,12 %
02.03.2022 02:34 3,6 C 2,2 C -1,1 C 68 % 1026,3 hPa 0,0 l/m 0 min 0 min 0 W/m 3,2 km/h (1 Bft) 97,87 %
02.03.2022 02:36 3,5 C 2,2 C -1,1 C 68 % 1026,3 hPa 0,0 l/m 0 min 0 min 0 W/m 3,2 km/h (1 Bft) 97,83 %
02.03.2022 02:38 3,5 C 2,2 C -1,1 C 67 % 1026,2 hPa 0,0 l/m 0 min 0 min 0 W/m 3,2 km/h (1 Bft) 98,11 %
02.03.2022 02:40 3,5 C 2,8 C -1,1 C 67 % 1026,3 hPa 0,0 l/m 0 min 0 min 0 W/m 3,2 km/h (1 Bft) 97,87 %
02.03.2022 02:42 3,4 C 2,8 C -1,1 C 67 % 1026,3 hPa 0,0 l/m 0 min 0 min 0 W/m 3,2 km/h (1 Bft) 97,87 %
02.03.2022 02:44 3,4 C 2,2 C -1,1 C 67 % 1026,2 hPa 0,0 l/m 0 min 0 min 0 W/m 3,2 km/h (1 Bft) 97,87 %
02.03.2022 02:46 3,4 C 2,2 C -1,1 C 67 % 1026,3 hPa 0,0 l/m 0 min 0 min 0 W/m 3,2 km/h (1 Bft) 100,00 %
02.03.2022 02:48 3,4 C 2,2 C -1,1 C 68 % 1026,3 hPa 0,0 l/m 0 min 0 min 0 W/m 3,2 km/h (1 Bft) 100,00 %
02.03.2022 02:50 3,4 C 2,2 C -1,1 C 68 % 1026,3 hPa 0,0 l/m 0 min 0 min 0 W/m 3,2 km/h (1 Bft) 55,56 %
02.03.2022 02:52 3,4 C 2,2 C -1,1 C 68 % 1026,3 hPa 0,0 l/m 0 min 0 min 0 W/m 0,0 km/h (0 Bft) 100,00 %
02.03.2022 02:54 3,4 C 2,2 C -1,1 C 68 % 1026,3 hPa 0,0 l/m 0 min 0 min 0 W/m 0,0 km/h (0 Bft) 100,00 %
02.03.2022 02:56 3,4 C 2,2 C -1,1 C 68 % 1026,3 hPa 0,0 l/m 0 min 0 min 0 W/m 6,4 km/h (2 Bft) 97,87 %
02.03.2022 02:58 3,3 C 2,2 C -1,1 C 68 % 1026,2 hPa 0,0 l/m 0 min 0 min 0 W/m 3,2 km/h (1 Bft) 100,00 %
02.03.2022 03:00 3,3 C 2,2 C -1,1 C 68 % 1026,2 hPa 0,0 l/m 0 min 0 min 0 W/m 3,2 km/h (1 Bft) 100,00 %
02.03.2022 03:02 3,3 C 2,2 C -1,1 C 68 % 1026,2 hPa 0,0 l/m 0 min 0 min 0 W/m 0,0 km/h (0 Bft) 100,00 %
02.03.2022 03:04 3,3 C 2,2 C -1,1 C 69 % 1026,1 hPa 0,0 l/m 0 min 0 min 0 W/m 3,2 km/h (1 Bft) 100,00 %
02.03.2022 03:06 3,3 C 2,2 C -1,7 C 69 % 1026,2 hPa 0,0 l/m 0 min 0 min 0 W/m 0,0 km/h (0 Bft) 100,00 %
02.03.2022 03:08 3,3 C 2,2 C -1,7 C 69 % 1026,2 hPa 0,0 l/m 0 min 0 min 0 W/m 0,0 km/h (0 Bft) 100,00 %
02.03.2022 03:10 3,3 C 1,7 C -1,7 C 69 % 1026,2 hPa 0,0 l/m 0 min 0 min 0 W/m 3,2 km/h (1 Bft) 100,00 %
02.03.2022 03:12 3,2 C 1,7 C -1,7 C 69 % 1026,2 hPa 0,0 l/m 0 min 0 min 0 W/m 0,0 km/h (0 Bft) 100,00 %
02.03.2022 03:14 3,2 C 1,7 C -1,7 C 69 % 1026,2 hPa 0,0 l/m 0 min 0 min 0 W/m 0,0 km/h (0 Bft) 100,00 %
02.03.2022 03:16 3,2 C 1,7 C -1,7 C 69 % 1026,1 hPa 0,0 l/m 0 min 0 min 0 W/m 3,2 km/h (1 Bft) 100,00 %
02.03.2022 03:18 3,2 C 1,7 C -1,7 C 69 % 1026,1 hPa 0,0 l/m 0 min 0 min 0 W/m 0,0 km/h (0 Bft) 97,87 %
02.03.2022 03:20 3,1 C 1,7 C -2,2 C 69 % 1026,1 hPa 0,0 l/m 0 min 0 min 0 W/m 0,0 km/h (0 Bft) 100,00 %
02.03.2022 03:22 3,1 C 1,1 C -2,2 C 69 % 1026,1 hPa 0,0 l/m 0 min 0 min 0 W/m 0,0 km/h (0 Bft) 100,00 %
02.03.2022 03:24 3,1 C 1,1 C -2,2 C 70 % 1026,1 hPa 0,0 l/m 0 min 0 min 0 W/m 0,0 km/h (0 Bft) 97,87 %
02.03.2022 03:26 3,0 C 1,1 C -2,2 C 70 % 1026,1 hPa 0,0 l/m 0 min 0 min 0 W/m 0,0 km/h (0 Bft) 97,87 %
02.03.2022 03:28 2,9 C 1,1 C -2,2 C 70 % 1026,1 hPa 0,0 l/m 0 min 0 min 0 W/m 0,0 km/h (0 Bft) 95,74 %
02.03.2022 03:30 2,9 C 1,1 C -2,2 C 70 % 1026,0 hPa 0,0 l/m 0 min 0 min 0 W/m 0,0 km/h (0 Bft) 97,87 %
02.03.2022 03:32 2,9 C 1,1 C -2,2 C 70 % 1026,0 hPa 0,0 l/m 0 min 0 min 0 W/m 0,0 km/h (0 Bft) 100,00 %
02.03.2022 03:34 2,8 C 1,1 C -2,2 C 70 % 1026,0 hPa 0,0 l/m 0 min 0 min 0 W/m 0,0 km/h (0 Bft) 92,31 %
02.03.2022 03:36 2,8 C 1,1 C -2,2 C 70 % 1025,9 hPa 0,0 l/m 0 min 0 min 0 W/m 0,0 km/h (0 Bft) 97,87 %
02.03.2022 03:38 2,8 C 1,1 C -2,2 C 70 % 1025,9 hPa 0,0 l/m 0 min 0 min 0 W/m 0,0 km/h (0 Bft) 96,00 %
02.03.2022 03:40 2,8 C 1,1 C -2,2 C 70 % 1025,9 hPa 0,0 l/m 0 min 0 min 0 W/m 0,0 km/h (0 Bft) 55,56 %
02.03.2022 03:42 2,7 C 1,1 C -2,2 C 70 % 1026,0 hPa 0,0 l/m 0 min 0 min 0 W/m 0,0 km/h (0 Bft) 95,74 %
02.03.2022 03:44 2,7 C 1,1 C -2,2 C 71 % 1025,9 hPa 0,0 l/m 0 min 0 min 0 W/m 0,0 km/h (0 Bft) 93,48 %
02.03.2022 03:46 2,7 C 1,1 C -2,2 C 71 % 1025,9 hPa 0,0 l/m 0 min 0 min 0 W/m 0,0 km/h (0 Bft) 93,62 %
02.03.2022 03:48 2,6 C 1,1 C -2,2 C 71 % 1025,8 hPa 0,0 l/m 0 min 0 min 0 W/m 0,0 km/h (0 Bft) 93,62 %
02.03.2022 03:50 2,6 C 1,1 C -2,2 C 71 % 1025,9 hPa 0,0 l/m 0 min 0 min 0 W/m 0,0 km/h (0 Bft) 95,74 %
02.03.2022 03:52 2,6 C 1,1 C -2,2 C 72 % 1025,8 hPa 0,0 l/m 0 min 0 min 0 W/m 0,0 km/h (0 Bft) 97,87 %
02.03.2022 03:54 2,5 C 1,1 C -2,2 C 72 % 1025,8 hPa 0,0 l/m 0 min 0 min 0 W/m 0,0 km/h (0 Bft) 95,65 %
02.03.2022 03:56 2,4 C 1,1 C -2,2 C 72 % 1025,8 hPa 0,0 l/m 0 min 0 min 0 W/m 0,0 km/h (0 Bft) 97,87 %
02.03.2022 03:58 2,4 C 1,1 C -2,2 C 72 % 1025,8 hPa 0,0 l/m 0 min 0 min 0 W/m 0,0 km/h (0 Bft) 97,87 %
02.03.2022 04:00 2,4 C 1,1 C -2,2 C 72 % 1025,8 hPa 0,0 l/m 0 min 0 min 0 W/m 0,0 km/h (0 Bft) 95,74 %
02.03.2022 04:02 2,4 C 1,1 C -2,2 C 72 % 1025,7 hPa 0,0 l/m 0 min 0 min 0 W/m 0,0 km/h (0 Bft) 100,00 %
02.03.2022 04:04 2,3 C 1,1 C -2,2 C 72 % 1025,7 hPa 0,0 l/m 0 min 0 min 0 W/m 0,0 km/h (0 Bft) 93,62 %
02.03.2022 04:06 2,3 C 1,1 C -2,2 C 72 % 1025,7 hPa 0,0 l/m 0 min 0 min 0 W/m 0,0 km/h (0 Bft) 91,30 %
02.03.2022 04:08 2,3 C 1,1 C -2,2 C 72 % 1025,8 hPa 0,0 l/m 0 min 0 min 0 W/m 0,0 km/h (0 Bft) 97,87 %
02.03.2022 04:10 2,2 C 1,1 C -2,2 C 72 % 1025,7 hPa 0,0 l/m 0 min 0 min 0 W/m 0,0 km/h (0 Bft) 94,29 %
02.03.2022 04:12 2,2 C 1,1 C -2,2 C 73 % 1025,7 hPa 0,0 l/m 0 min 0 min 0 W/m 0,0 km/h (0 Bft) 92,98 %
02.03.2022 04:14 2,2 C 1,1 C -2,2 C 73 % 1025,7 hPa 0,0 l/m 0 min 0 min 0 W/m 0,0 km/h (0 Bft) 95,74 %
02.03.2022 04:16 2,1 C 1,1 C -2,2 C 73 % 1025,6 hPa 0,0 l/m 0 min 0 min 0 W/m 0,0 km/h (0 Bft) 95,74 %
02.03.2022 04:18 2,1 C 1,1 C -2,2 C 73 % 1025,7 hPa 0,0 l/m 0 min 0 min 0 W/m 0,0 km/h (0 Bft) 95,74 %
02.03.2022 04:20 2,1 C 1,1 C -2,2 C 72 % 1025,6 hPa 0,0 l/m 0 min 0 min 0 W/m 0,0 km/h (0 Bft) 93,48 %
02.03.2022 04:22 2,1 C 1,1 C -2,2 C 72 % 1025,6 hPa 0,0 l/m 0 min 0 min 0 W/m 0,0 km/h (0 Bft) 95,74 %
02.03.2022 04:24 2,1 C 1,1 C -2,2 C 72 % 1025,6 hPa 0,0 l/m 0 min 0 min 0 W/m 0,0 km/h (0 Bft) 95,74 %
02.03.2022 04:26 2,0 C 1,1 C -2,8 C 72 % 1025,6 hPa 0,0 l/m 0 min 0 min 0 W/m 0,0 km/h (0 Bft) 95,74 %
02.03.2022 04:28 2,0 C 1,1 C -2,8 C 72 % 1025,6 hPa 0,0 l/m 0 min 0 min 0 W/m 0,0 km/h (0 Bft) 93,62 %
02.03.2022 04:30 1,9 C 1,1 C -2,8 C 72 % 1025,6 hPa 0,0 l/m 0 min 0 min 0 W/m 0,0 km/h (0 Bft) 95,65 %
02.03.2022 04:32 1,9 C 1,1 C -2,8 C 72 % 1025,5 hPa 0,0 l/m 0 min 0 min 0 W/m 0,0 km/h (0 Bft) 95,74 %
02.03.2022 04:34 1,9 C 1,1 C -2,8 C 72 % 1025,5 hPa 0,0 l/m 0 min 0 min 0 W/m 0,0 km/h (0 Bft) 95,74 %
02.03.2022 04:36 1,9 C 1,1 C -2,8 C 72 % 1025,5 hPa 0,0 l/m 0 min 0 min 0 W/m 0,0 km/h (0 Bft) 95,74 %
02.03.2022 04:38 1,9 C 0,6 C -2,8 C 72 % 1025,5 hPa 0,0 l/m 0 min 0 min 0 W/m 0,0 km/h (0 Bft) 95,74 %
02.03.2022 04:40 1,8 C 1,1 C -2,8 C 72 % 1025,6 hPa 0,0 l/m 0 min 0 min 0 W/m 0,0 km/h (0 Bft) 95,92 %
02.03.2022 04:42 1,8 C 1,1 C -2,8 C 73 % 1025,5 hPa 0,0 l/m 0 min 0 min 0 W/m 0,0 km/h (0 Bft) 100,00 %
02.03.2022 04:44 1,8 C 0,6 C -2,8 C 73 % 1025,5 hPa 0,0 l/m 0 min 0 min 0 W/m 0,0 km/h (0 Bft) 97,87 %
02.03.2022 04:46 1,8 C 0,6 C -2,8 C 72 % 1025,5 hPa 0,0 l/m 0 min 0 min 0 W/m 0,0 km/h (0 Bft) 100,00 %
02.03.2022 04:48 1,8 C 0,6 C -2,8 C 72 % 1025,5 hPa 0,0 l/m 0 min 0 min 0 W/m 0,0 km/h (0 Bft) 97,87 %
02.03.2022 04:50 1,7 C 0,6 C -2,8 C 73 % 1025,6 hPa 0,0 l/m 0 min 0 min 0 W/m 3,2 km/h (1 Bft) 100,00 %
02.03.2022 04:52 1,7 C 0,6 C -2,8 C 72 % 1025,6 hPa 0,0 l/m 0 min 0 min 0 W/m 0,0 km/h (0 Bft) 100,00 %
02.03.2022 04:54 1,7 C 0,6 C -2,8 C 72 % 1025,5 hPa 0,0 l/m 0 min 0 min 0 W/m 3,2 km/h (1 Bft) 100,00 %
02.03.2022 04:56 1,7 C 0,6 C -2,8 C 72 % 1025,6 hPa 0,0 l/m 0 min 0 min 0 W/m 3,2 km/h (1 Bft) 100,00 %
02.03.2022 04:58 1,6 C 0,6 C -2,8 C 72 % 1025,6 hPa 0,0 l/m 0 min 0 min 0 W/m 0,0 km/h (0 Bft) 95,74 %
02.03.2022 05:00 1,6 C 0,6 C -2,8 C 72 % 1025,6 hPa 0,0 l/m 0 min 0 min 0 W/m 0,0 km/h (0 Bft) 95,74 %
02.03.2022 05:02 1,6 C 0,6 C -2,8 C 72 % 1025,6 hPa 0,0 l/m 0 min 0 min 0 W/m 0,0 km/h (0 Bft) 97,87 %
02.03.2022 05:04 1,6 C 0,6 C -2,8 C 72 % 1025,6 hPa 0,0 l/m 0 min 0 min 0 W/m 0,0 km/h (0 Bft) 97,83 %
02.03.2022 05:06 1,6 C 0,6 C -2,8 C 73 % 1025,6 hPa 0,0 l/m 0 min 0 min 0 W/m 0,0 km/h (0 Bft) 97,87 %
02.03.2022 05:08 1,6 C 0,6 C -2,8 C 73 % 1025,5 hPa 0,0 l/m 0 min 0 min 0 W/m 0,0 km/h (0 Bft) 97,87 %
02.03.2022 05:10 1,6 C 0,6 C -2,8 C 73 % 1025,5 hPa 0,0 l/m 0 min 0 min 0 W/m 0,0 km/h (0 Bft) 93,62 %
02.03.2022 05:12 1,5 C 0,6 C -2,8 C 73 % 1025,5 hPa 0,0 l/m 0 min 0 min 0 W/m 0,0 km/h (0 Bft) 95,74 %
02.03.2022 05:14 1,5 C 0,6 C -2,8 C 73 % 1025,5 hPa 0,0 l/m 0 min 0 min 0 W/m 3,2 km/h (1 Bft) 97,87 %
02.03.2022 05:16 1,5 C 0,6 C -2,8 C 73 % 1025,5 hPa 0,0 l/m 0 min 0 min 0 W/m 3,2 km/h (1 Bft) 97,83 %
02.03.2022 05:18 1,4 C 0,6 C -2,8 C 73 % 1025,5 hPa 0,0 l/m 0 min 0 min 0 W/m 0,0 km/h (0 Bft) 97,87 %
02.03.2022 05:20 1,4 C 0,6 C -2,8 C 73 % 1025,5 hPa 0,0 l/m 0 min 0 min 0 W/m 0,0 km/h (0 Bft) 97,87 %
02.03.2022 05:22 1,4 C 0,6 C -2,8 C 73 % 1025,5 hPa 0,0 l/m 0 min 0 min 0 W/m 3,2 km/h (1 Bft) 97,87 %
02.03.2022 05:24 1,4 C 0,6 C -2,8 C 74 % 1025,4 hPa 0,0 l/m 0 min 0 min 0 W/m 0,0 km/h (0 Bft) 95,74 %
02.03.2022 05:26 1,4 C 0,6 C -2,8 C 74 % 1025,4 hPa 0,0 l/m 0 min 0 min 0 W/m 3,2 km/h (1 Bft) 97,87 %
02.03.2022 05:28 1,4 C 0,6 C -2,8 C 74 % 1025,4 hPa 0,0 l/m 0 min 0 min 0 W/m 3,2 km/h (1 Bft) 100,00 %
02.03.2022 05:30 1,4 C 0,6 C -2,8 C 74 % 1025,4 hPa 0,0 l/m 0 min 0 min 0 W/m 3,2 km/h (1 Bft) 97,87 %
02.03.2022 05:32 1,3 C 0,6 C -2,8 C 74 % 1025,4 hPa 0,0 l/m 0 min 0 min 0 W/m 3,2 km/h (1 Bft) 100,00 %
02.03.2022 05:34 1,3 C 0,6 C -2,8 C 74 % 1025,4 hPa 0,0 l/m 0 min 0 min 0 W/m 3,2 km/h (1 Bft) 100,00 %
02.03.2022 05:36 1,3 C 0,6 C -2,8 C 74 % 1025,3 hPa 0,0 l/m 0 min 0 min 0 W/m 3,2 km/h (1 Bft) 100,00 %
02.03.2022 05:38 1,3 C 0,6 C -2,8 C 74 % 1025,3 hPa 0,0 l/m 0 min 0 min 0 W/m 3,2 km/h (1 Bft) 100,00 %
02.03.2022 05:40 1,3 C 0,6 C -2,8 C 74 % 1025,3 hPa 0,0 l/m 0 min 0 min 0 W/m 6,4 km/h (2 Bft) 97,83 %
02.03.2022 05:42 1,3 C 1,1 C -2,8 C 74 % 1025,3 hPa 0,0 l/m 0 min 0 min 0 W/m 0,0 km/h (0 Bft) 100,00 %
02.03.2022 05:44 1,3 C 1,1 C -2,8 C 74 % 1025,3 hPa 0,0 l/m 0 min 0 min 0 W/m 3,2 km/h (1 Bft) 97,87 %
02.03.2022 05:46 1,3 C 1,1 C -2,8 C 74 % 1025,3 hPa 0,0 l/m 0 min 0 min 0 W/m 0,0 km/h (0 Bft) 100,00 %
02.03.2022 05:48 1,3 C 1,1 C -2,8 C 74 % 1025,3 hPa 0,0 l/m 0 min 0 min 0 W/m 0,0 km/h (0 Bft) 100,00 %
02.03.2022 05:50 1,3 C 0,6 C -2,8 C 74 % 1025,2 hPa 0,0 l/m 0 min 0 min 0 W/m 3,2 km/h (1 Bft) 97,83 %
02.03.2022 05:52 1,3 C 0,6 C -2,8 C 74 % 1025,3 hPa 0,0 l/m 0 min 0 min 0 W/m 0,0 km/h (0 Bft) 100,00 %
02.03.2022 05:54 1,3 C 0,6 C -2,8 C 74 % 1025,2 hPa 0,0 l/m 0 min 0 min 0 W/m 3,2 km/h (1 Bft) 97,87 %
02.03.2022 05:56 1,4 C 0,6 C -2,8 C 74 % 1025,2 hPa 0,0 l/m 0 min 0 min 0 W/m 0,0 km/h (0 Bft) 100,00 %
02.03.2022 05:58 1,4 C 0,6 C -2,8 C 74 % 1025,2 hPa 0,0 l/m 0 min 0 min 0 W/m 0,0 km/h (0 Bft) 100,00 %
02.03.2022 06:00 1,4 C 0,6 C -2,8 C 74 % 1025,2 hPa 0,0 l/m 0 min 0 min 0 W/m 0,0 km/h (0 Bft) 97,87 %
02.03.2022 06:02 1,4 C 0,6 C -2,8 C 74 % 1025,2 hPa 0,0 l/m 0 min 0 min 0 W/m 0,0 km/h (0 Bft) 95,65 %
02.03.2022 06:04 1,4 C 0,6 C -2,8 C 74 % 1025,2 hPa 0,0 l/m 0 min 0 min 0 W/m 0,0 km/h (0 Bft) 97,87 %
02.03.2022 06:08 1,4 C 1,1 C -2,2 C 74 % 1025,1 hPa 0,0 l/m 0 min 0 min 0 W/m 0,0 km/h (0 Bft) 97,56 %
02.03.2022 06:10 1,4 C 1,1 C -2,8 C 74 % 1025,1 hPa 0,0 l/m 0 min 0 min 0 W/m 0,0 km/h (0 Bft) 97,87 %
02.03.2022 06:12 1,4 C 0,6 C -2,8 C 74 % 1025,1 hPa 0,0 l/m 0 min 0 min 0 W/m 0,0 km/h (0 Bft) 97,87 %
02.03.2022 06:14 1,5 C 0,6 C -2,8 C 74 % 1025,1 hPa 0,0 l/m 0 min 0 min 0 W/m 0,0 km/h (0 Bft) 97,87 %
02.03.2022 06:16 1,4 C 0,6 C -2,8 C 74 % 1025,1 hPa 0,0 l/m 0 min 0 min 0 W/m 0,0 km/h (0 Bft) 97,87 %
02.03.2022 06:18 1,4 C 0,6 C -2,8 C 74 % 1025,1 hPa 0,0 l/m 0 min 0 min 0 W/m 0,0 km/h (0 Bft) 95,65 %
02.03.2022 06:20 1,4 C 0,6 C -2,8 C 74 % 1025,1 hPa 0,0 l/m 0 min 0 min 0 W/m 0,0 km/h (0 Bft) 97,87 %
02.03.2022 06:22 1,4 C 0,6 C -2,8 C 74 % 1025,0 hPa 0,0 l/m 0 min 0 min 0 W/m 3,2 km/h (1 Bft) 97,87 %
02.03.2022 06:24 1,4 C 0,6 C -2,8 C 74 % 1025,0 hPa 0,0 l/m 0 min 0 min 0 W/m 0,0 km/h (0 Bft) 97,87 %
02.03.2022 06:26 1,4 C 0,6 C -2,8 C 75 % 1025,0 hPa 0,0 l/m 0 min 0 min 0 W/m 3,2 km/h (1 Bft) 97,87 %
02.03.2022 06:28 1,4 C 0,6 C -2,8 C 75 % 1025,0 hPa 0,0 l/m 0 min 0 min 0 W/m 0,0 km/h (0 Bft) 93,62 %
02.03.2022 06:30 1,4 C 0,6 C -2,8 C 75 % 1025,0 hPa 0,0 l/m 0 min 0 min 0 W/m 0,0 km/h (0 Bft) 97,83 %
02.03.2022 06:32 1,4 C 0,6 C -2,8 C 75 % 1025,0 hPa 0,0 l/m 0 min 0 min 0 W/m 0,0 km/h (0 Bft) 97,87 %
02.03.2022 06:34 1,4 C 0,6 C -2,8 C 75 % 1025,1 hPa 0,0 l/m 0 min 0 min 0 W/m 0,0 km/h (0 Bft) 97,87 %
02.03.2022 06:36 1,4 C 0,6 C -2,8 C 75 % 1025,1 hPa 0,0 l/m 0 min 0 min 0 W/m 0,0 km/h (0 Bft) 97,87 %
02.03.2022 06:38 1,4 C 0,6 C -2,8 C 75 % 1025,1 hPa 0,0 l/m 0 min 0 min 0 W/m 3,2 km/h (1 Bft) 100,00 %
02.03.2022 06:40 1,4 C 0,6 C -2,8 C 75 % 1025,1 hPa 0,0 l/m 0 min 0 min 0 W/m 0,0 km/h (0 Bft) 97,83 %
02.03.2022 06:42 1,4 C 0,6 C -2,8 C 75 % 1025,1 hPa 0,0 l/m 0 min 0 min 0 W/m 0,0 km/h (0 Bft) 95,74 %
02.03.2022 06:44 1,4 C 0,6 C -2,8 C 75 % 1025,1 hPa 0,0 l/m 0 min 0 min 0 W/m 0,0 km/h (0 Bft) 95,74 %
02.03.2022 06:46 1,4 C 0,6 C -2,8 C 75 % 1025,1 hPa 0,0 l/m 0 min 0 min 0 W/m 0,0 km/h (0 Bft) 97,87 %
02.03.2022 06:48 1,4 C 0,6 C -2,8 C 75 % 1025,1 hPa 0,0 l/m 0 min 0 min 0 W/m 3,2 km/h (1 Bft) 95,74 %
02.03.2022 06:50 1,3 C 0,6 C -2,8 C 75 % 1025,1 hPa 0,0 l/m 0 min 0 min 0 W/m 3,2 km/h (1 Bft) 97,87 %
02.03.2022 06:52 1,3 C 0,6 C -2,8 C 75 % 1025,1 hPa 0,0 l/m 0 min 0 min 0 W/m 3,2 km/h (1 Bft) 97,83 %
02.03.2022 06:54 1,3 C 0,6 C -2,8 C 75 % 1025,1 hPa 0,0 l/m 0 min 0 min 0 W/m 3,2 km/h (1 Bft) 95,74 %
02.03.2022 06:56 1,3 C 0,0 C -2,8 C 75 % 1025,1 hPa 0,0 l/m 0 min 0 min 0 W/m 3,2 km/h (1 Bft) 97,87 %
02.03.2022 06:58 1,3 C 0,0 C -2,8 C 75 % 1025,2 hPa 0,0 l/m 0 min 0 min 0 W/m 3,2 km/h (1 Bft) 100,00 %
02.03.2022 07:00 1,3 C 0,6 C -2,8 C 75 % 1025,2 hPa 0,0 l/m 0 min 0 min 0 W/m 3,2 km/h (1 Bft) 97,87 %
02.03.2022 07:02 1,2 C 0,6 C -2,8 C 75 % 1025,2 hPa 0,0 l/m 0 min 0 min 0 W/m 3,2 km/h (1 Bft) 97,87 %
02.03.2022 07:04 1,2 C 0,6 C -2,8 C 75 % 1025,2 hPa 0,0 l/m 0 min 0 min 0 W/m 3,2 km/h (1 Bft) 97,83 %
02.03.2022 07:06 1,2 C 0,6 C -2,8 C 75 % 1025,2 hPa 0,0 l/m 0 min 0 min 0 W/m 0,0 km/h (0 Bft) 97,87 %
02.03.2022 07:08 1,2 C 0,6 C -3,3 C 75 % 1025,2 hPa 0,0 l/m 0 min 0 min 0 W/m 3,2 km/h (1 Bft) 97,87 %
02.03.2022 07:10 1,2 C 0,6 C -3,3 C 75 % 1025,2 hPa 0,0 l/m 0 min 0 min 0 W/m 0,0 km/h (0 Bft) 100,00 %
02.03.2022 07:12 1,2 C 0,0 C -3,3 C 75 % 1025,2 hPa 0,0 l/m 0 min 0 min 0 W/m 3,2 km/h (1 Bft) 100,00 %
02.03.2022 07:14 1,1 C 0,6 C -3,3 C 76 % 1025,2 hPa 0,0 l/m 0 min 0 min 0 W/m 6,4 km/h (2 Bft) 100,00 %
02.03.2022 07:16 1,1 C 0,6 C -3,3 C 76 % 1025,2 hPa 0,0 l/m 0 min 0 min 0 W/m 3,2 km/h (1 Bft) 100,00 %
02.03.2022 07:18 1,1 C 0,6 C -3,3 C 76 % 1025,2 hPa 0,0 l/m 0 min 0 min 0 W/m 3,2 km/h (1 Bft) 100,00 %
02.03.2022 07:20 1,1 C 0,0 C -3,3 C 76 % 1025,2 hPa 0,0 l/m 0 min 0 min 4 W/m 3,2 km/h (1 Bft) 97,87 %
02.03.2022 07:22 1,1 C 0,0 C -3,3 C 76 % 1025,1 hPa 0,0 l/m 0 min 0 min 5 W/m 3,2 km/h (1 Bft) 97,87 %
02.03.2022 07:24 1,1 C 0,0 C -3,3 C 76 % 1025,2 hPa 0,0 l/m 0 min 0 min 7 W/m 3,2 km/h (1 Bft) 100,00 %
02.03.2022 07:26 1,1 C 0,0 C -3,3 C 76 % 1025,2 hPa 0,0 l/m 0 min 0 min 9 W/m 3,2 km/h (1 Bft) 91,49 %
02.03.2022 07:28 1,1 C 0,0 C -3,3 C 76 % 1025,2 hPa 0,0 l/m 0 min 0 min 11 W/m 0,0 km/h (0 Bft) 60,00 %
02.03.2022 07:30 1,1 C 0,6 C -2,8 C 76 % 1025,2 hPa 0,0 l/m 0 min 0 min 14 W/m 3,2 km/h (1 Bft) 97,87 %
02.03.2022 07:32 1,1 C 0,6 C -2,8 C 76 % 1025,2 hPa 0,0 l/m 0 min 0 min 17 W/m 0,0 km/h (0 Bft) 95,74 %
02.03.2022 07:34 1,1 C 0,6 C -2,8 C 76 % 1025,2 hPa 0,0 l/m 2 min 0 min 21 W/m 3,2 km/h (1 Bft) 97,87 %
02.03.2022 07:36 1,1 C 0,6 C -2,8 C 76 % 1025,1 hPa 0,0 l/m 2 min 0 min 25 W/m 3,2 km/h (1 Bft) 97,87 %
02.03.2022 07:38 1,2 C 0,6 C -2,8 C 76 % 1025,1 hPa 0,0 l/m 2 min 0 min 27 W/m 3,2 km/h (1 Bft) 97,83 %
02.03.2022 07:40 1,2 C 1,1 C -2,8 C 76 % 1025,1 hPa 0,0 l/m 2 min 0 min 30 W/m 3,2 km/h (1 Bft) 95,74 %
02.03.2022 07:42 1,2 C 1,1 C -2,2 C 76 % 1025,1 hPa 0,0 l/m 2 min 0 min 32 W/m 0,0 km/h (0 Bft) 97,87 %
02.03.2022 07:44 1,2 C 1,1 C -2,2 C 76 % 1025,1 hPa 0,0 l/m 2 min 0 min 32 W/m 0,0 km/h (0 Bft) 97,87 %
02.03.2022 07:46 1,2 C 1,1 C -2,2 C 76 % 1025,1 hPa 0,0 l/m 2 min 0 min 32 W/m 0,0 km/h (0 Bft) 97,87 %
02.03.2022 07:48 1,2 C 1,1 C -2,8 C 76 % 1025,1 hPa 0,0 l/m 0 min 0 min 32 W/m 3,2 km/h (1 Bft) 97,87 %
02.03.2022 07:50 1,2 C 1,1 C -2,8 C 76 % 1025,1 hPa 0,0 l/m 0 min 0 min 32 W/m 0,0 km/h (0 Bft) 97,83 %
02.03.2022 07:52 1,2 C 1,1 C -2,8 C 76 % 1025,2 hPa 0,0 l/m 0 min 0 min 33 W/m 3,2 km/h (1 Bft) 93,62 %
02.03.2022 07:54 1,2 C 1,1 C -2,8 C 76 % 1025,2 hPa 0,0 l/m 0 min 0 min 35 W/m 3,2 km/h (1 Bft) 97,87 %
02.03.2022 07:56 1,2 C 1,1 C -2,8 C 76 % 1025,1 hPa 0,0 l/m 0 min 0 min 37 W/m 0,0 km/h (0 Bft) 95,74 %
02.03.2022 07:58 1,2 C 1,1 C -2,8 C 76 % 1025,2 hPa 0,0 l/m 0 min 0 min 40 W/m 0,0 km/h (0 Bft) 95,74 %
02.03.2022 08:00 1,3 C 1,1 C -2,8 C 76 % 1025,2 hPa 0,0 l/m 0 min 0 min 42 W/m 3,2 km/h (1 Bft) 95,74 %
02.03.2022 08:02 1,3 C 1,1 C -2,8 C 76 % 1025,2 hPa 0,0 l/m 0 min 0 min 46 W/m 0,0 km/h (0 Bft) 94,23 %
02.03.2022 08:04 1,3 C 1,1 C -2,2 C 76 % 1025,2 hPa 0,0 l/m 0 min 0 min 47 W/m 0,0 km/h (0 Bft) 95,74 %
02.03.2022 08:06 1,3 C 1,1 C -2,2 C 76 % 1025,2 hPa 0,0 l/m 0 min 0 min 47 W/m 3,2 km/h (1 Bft) 95,74 %
02.03.2022 08:08 1,3 C 1,1 C -2,2 C 76 % 1025,2 hPa 0,0 l/m 0 min 0 min 47 W/m 0,0 km/h (0 Bft) 95,74 %
02.03.2022 08:10 1,3 C 1,7 C -2,2 C 77 % 1025,2 hPa 0,0 l/m 0 min 0 min 49 W/m 0,0 km/h (0 Bft) 97,87 %
02.03.2022 08:12 1,4 C 1,7 C -2,2 C 77 % 1025,2 hPa 0,0 l/m 0 min 0 min 49 W/m 0,0 km/h (0 Bft) 91,30 %
02.03.2022 08:14 1,4 C 1,7 C -2,2 C 77 % 1025,2 hPa 0,0 l/m 0 min 0 min 51 W/m 0,0 km/h (0 Bft) 97,87 %
02.03.2022 08:16 1,4 C 1,7 C -2,2 C 77 % 1025,2 hPa 0,0 l/m 0 min 0 min 52 W/m 3,2 km/h (1 Bft) 92,68 %
02.03.2022 08:18 1,4 C 1,7 C -2,2 C 77 % 1025,2 hPa 0,0 l/m 0 min 0 min 53 W/m 3,2 km/h (1 Bft) 97,87 %
02.03.2022 08:20 1,4 C 1,7 C -2,2 C 77 % 1025,3 hPa 0,0 l/m 0 min 0 min 54 W/m 3,2 km/h (1 Bft) 97,87 %
02.03.2022 08:22 1,4 C 1,7 C -2,2 C 77 % 1025,4 hPa 0,0 l/m 0 min 0 min 55 W/m 3,2 km/h (1 Bft) 94,34 %
02.03.2022 08:24 1,4 C 1,7 C -2,2 C 77 % 1025,4 hPa 0,0 l/m 0 min 0 min 56 W/m 3,2 km/h (1 Bft) 93,48 %
02.03.2022 08:26 1,5 C 2,2 C -2,2 C 77 % 1025,4 hPa 0,0 l/m 0 min 0 min 56 W/m 3,2 km/h (1 Bft) 93,62 %
02.03.2022 08:28 1,5 C 2,2 C -2,2 C 77 % 1025,3 hPa 0,0 l/m 0 min 0 min 56 W/m 3,2 km/h (1 Bft) 95,74 %
02.03.2022 08:30 1,6 C 2,2 C -1,7 C 77 % 1025,4 hPa 0,0 l/m 0 min 0 min 56 W/m 3,2 km/h (1 Bft) 93,62 %
02.03.2022 08:32 1,6 C 2,2 C -1,7 C 77 % 1025,3 hPa 0,0 l/m 0 min 0 min 56 W/m 3,2 km/h (1 Bft) 95,12 %
02.03.2022 08:34 1,6 C 2,2 C -1,7 C 77 % 1025,4 hPa 0,0 l/m 0 min 0 min 56 W/m 3,2 km/h (1 Bft) 97,87 %
02.03.2022 08:36 1,7 C 2,2 C -1,7 C 77 % 1025,4 hPa 0,0 l/m 0 min 0 min 56 W/m 0,0 km/h (0 Bft) 97,83 %
02.03.2022 08:38 1,7 C 2,2 C -1,7 C 77 % 1025,3 hPa 0,0 l/m 0 min 0 min 54 W/m 0,0 km/h (0 Bft) 96,43 %
02.03.2022 08:40 1,7 C 2,2 C -1,7 C 77 % 1025,3 hPa 0,0 l/m 0 min 0 min 53 W/m 3,2 km/h (1 Bft) 98,00 %
02.03.2022 08:42 1,8 C 2,2 C -1,7 C 77 % 1025,3 hPa 0,0 l/m 0 min 0 min 52 W/m 3,2 km/h (1 Bft) 97,87 %
02.03.2022 08:44 1,8 C 2,8 C -1,7 C 77 % 1025,3 hPa 0,0 l/m 0 min 0 min 51 W/m 3,2 km/h (1 Bft) 97,83 %
02.03.2022 08:46 1,9 C 2,8 C -1,7 C 77 % 1025,2 hPa 0,0 l/m 0 min 0 min 64 W/m 3,2 km/h (1 Bft) 97,87 %
02.03.2022 08:48 1,9 C 2,8 C -1,7 C 77 % 1025,2 hPa 0,0 l/m 2 min 0 min 165 W/m 3,2 km/h (1 Bft) 97,87 %
02.03.2022 08:50 1,9 C 2,8 C -1,7 C 77 % 1025,2 hPa 0,0 l/m 2 min 0 min 181 W/m 3,2 km/h (1 Bft) 97,87 %
02.03.2022 08:52 2,0 C 2,8 C -1,7 C 77 % 1025,2 hPa 0,0 l/m 2 min 0 min 198 W/m 3,2 km/h (1 Bft) 97,87 %
02.03.2022 08:54 2,1 C 3,3 C -1,7 C 77 % 1025,2 hPa 0,0 l/m 2 min 0 min 201 W/m 3,2 km/h (1 Bft) 100,00 %
02.03.2022 08:56 2,1 C 4,4 C -1,7 C 77 % 1025,2 hPa 0,0 l/m 2 min 0 min 188 W/m 3,2 km/h (1 Bft) 100,00 %
02.03.2022 08:58 2,2 C 5,6 C -1,1 C 77 % 1025,2 hPa 0,0 l/m 2 min 0 min 159 W/m 6,4 km/h (2 Bft) 100,00 %
02.03.2022 09:00 2,3 C 6,1 C -1,1 C 78 % 1025,2 hPa 0,0 l/m 2 min 0 min 187 W/m 3,2 km/h (1 Bft) 100,00 %
02.03.2022 09:02 2,4 C 7,2 C -1,1 C 78 % 1025,2 hPa 0,0 l/m 2 min 0 min 151 W/m 3,2 km/h (1 Bft) 98,00 %
02.03.2022 09:04 2,6 C 7,8 C -1,1 C 78 % 1025,2 hPa 0,0 l/m 0 min 0 min 117 W/m 3,2 km/h (1 Bft) 100,00 %
02.03.2022 09:06 2,7 C 7,8 C -1,1 C 78 % 1025,2 hPa 0,0 l/m 2 min 0 min 162 W/m 3,2 km/h (1 Bft) 100,00 %
02.03.2022 09:08 2,8 C 8,3 C -1,1 C 77 % 1025,2 hPa 0,0 l/m 2 min 0 min 168 W/m 3,2 km/h (1 Bft) 100,00 %
02.03.2022 09:10 3,0 C 8,3 C -1,1 C 77 % 1025,1 hPa 0,0 l/m 2 min 0 min 241 W/m 3,2 km/h (1 Bft) 97,83 %
02.03.2022 09:12 3,2 C 8,3 C -0,6 C 77 % 1025,1 hPa 0,0 l/m 2 min 0 min 257 W/m 3,2 km/h (1 Bft) 100,00 %
02.03.2022 09:14 3,3 C 8,3 C -0,6 C 77 % 1025,1 hPa 0,0 l/m 2 min 0 min 212 W/m 3,2 km/h (1 Bft) 100,00 %
02.03.2022 09:16 3,4 C 8,3 C -0,6 C 76 % 1025,1 hPa 0,0 l/m 2 min 0 min 188 W/m 3,2 km/h (1 Bft) 100,00 %
02.03.2022 09:18 3,6 C 8,3 C -0,6 C 76 % 1025,1 hPa 0,0 l/m 2 min 0 min 221 W/m 3,2 km/h (1 Bft) 100,00 %
02.03.2022 09:20 3,8 C 8,3 C -0,6 C 75 % 1025,1 hPa 0,0 l/m 2 min 0 min 233 W/m 3,2 km/h (1 Bft) 97,83 %
02.03.2022 09:22 3,9 C 8,9 C -0,6 C 75 % 1025,1 hPa 0,0 l/m 2 min 0 min 156 W/m 6,4 km/h (2 Bft) 100,00 %
02.03.2022 09:24 4,1 C 8,9 C 0,0 C 75 % 1025,1 hPa 0,0 l/m 2 min 0 min 165 W/m 6,4 km/h (2 Bft) 98,18 %
02.03.2022 09:26 4,2 C 8,9 C 0,0 C 75 % 1025,1 hPa 0,0 l/m 2 min 0 min 153 W/m 3,2 km/h (1 Bft) 100,00 %
02.03.2022 09:28 4,3 C 8,3 C 0,0 C 74 % 1025,1 hPa 0,0 l/m 2 min 0 min 188 W/m 3,2 km/h (1 Bft) 100,00 %
02.03.2022 09:30 4,4 C 8,3 C 0,0 C 74 % 1025,1 hPa 0,0 l/m 2 min 0 min 230 W/m 0,0 km/h (0 Bft) 100,00 %
02.03.2022 09:32 4,6 C 8,9 C 0,0 C 73 % 1025,1 hPa 0,0 l/m 2 min 0 min 248 W/m 6,4 km/h (2 Bft) 100,00 %
02.03.2022 09:34 4,7 C 8,3 C 0,6 C 72 % 1025,1 hPa 0,0 l/m 2 min 0 min 273 W/m 9,7 km/h (2 Bft) 100,00 %
02.03.2022 09:36 4,8 C 7,8 C 0,6 C 70 % 1025,0 hPa 0,0 l/m 2 min 0 min 195 W/m 12,9 km/h (3 Bft) 100,00 %
02.03.2022 09:38 4,9 C 7,8 C 0,6 C 69 % 1025,0 hPa 0,0 l/m 2 min 0 min 164 W/m 6,4 km/h (2 Bft) 100,00 %
02.03.2022 09:40 5,1 C 7,8 C 0,6 C 69 % 1025,0 hPa 0,0 l/m 2 min 0 min 175 W/m 6,4 km/h (2 Bft) 100,00 %
02.03.2022 09:42 5,2 C 7,8 C 1,1 C 68 % 1025,0 hPa 0,0 l/m 2 min 0 min 178 W/m 6,4 km/h (2 Bft) 98,00 %
02.03.2022 09:44 5,3 C 7,2 C 1,1 C 67 % 1025,0 hPa 0,0 l/m 2 min 0 min 185 W/m 12,9 km/h (3 Bft) 100,00 %
02.03.2022 09:46 5,4 C 7,2 C 1,1 C 66 % 1025,0 hPa 0,0 l/m 0 min 0 min 92 W/m 12,9 km/h (3 Bft) 100,00 %
02.03.2022 09:48 5,6 C 7,2 C 1,1 C 65 % 1025,0 hPa 0,0 l/m 0 min 0 min 110 W/m 6,4 km/h (2 Bft) 97,87 %
02.03.2022 09:50 5,7 C 7,8 C 1,1 C 64 % 1025,0 hPa 0,0 l/m 0 min 0 min 100 W/m 9,7 km/h (2 Bft) 100,00 %
02.03.2022 09:52 5,8 C 8,3 C 1,1 C 64 % 1025,0 hPa 0,0 l/m 2 min 0 min 208 W/m 6,4 km/h (2 Bft) 100,00 %
02.03.2022 09:54 5,9 C 8,3 C 1,7 C 64 % 1024,9 hPa 0,0 l/m 2 min 0 min 333 W/m 3,2 km/h (1 Bft) 95,74 %
02.03.2022 09:56 6,1 C 8,3 C 1,7 C 64 % 1024,9 hPa 0,0 l/m 2 min 0 min 206 W/m 12,9 km/h (3 Bft) 100,00 %
02.03.2022 09:58 6,2 C 8,3 C 1,7 C 63 % 1024,9 hPa 0,0 l/m 2 min 0 min 222 W/m 6,4 km/h (2 Bft) 100,00 %
02.03.2022 10:00 6,4 C 9,4 C 1,7 C 63 % 1024,8 hPa 0,0 l/m 2 min 0 min 311 W/m 6,4 km/h (2 Bft) 100,00 %
02.03.2022 10:02 6,5 C 10,6 C 2,2 C 63 % 1024,8 hPa 0,0 l/m 2 min 0 min 281 W/m 6,4 km/h (2 Bft) 95,74 %
02.03.2022 10:04 6,7 C 11,1 C 2,2 C 62 % 1024,8 hPa 0,0 l/m 2 min 0 min 215 W/m 9,7 km/h (2 Bft) 100,00 %
02.03.2022 10:06 6,8 C 11,1 C 2,8 C 61 % 1024,8 hPa 0,0 l/m 2 min 0 min 292 W/m 12,9 km/h (3 Bft) 100,00 %
02.03.2022 10:08 6,9 C 11,1 C 2,8 C 59 % 1024,8 hPa 0,0 l/m 2 min 0 min 240 W/m 9,7 km/h (2 Bft) 100,00 %
02.03.2022 10:10 7,0 C 11,1 C 2,8 C 58 % 1024,8 hPa 0,0 l/m 0 min 0 min 80 W/m 16,1 km/h (3 Bft) 100,00 %
02.03.2022 10:12 7,1 C 11,1 C 2,8 C 57 % 1024,7 hPa 0,0 l/m 0 min 0 min 159 W/m 12,9 km/h (3 Bft) 100,00 %
02.03.2022 10:14 7,2 C 12,2 C 2,8 C 57 % 1024,8 hPa 0,0 l/m 0 min 0 min 100 W/m 12,9 km/h (3 Bft) 97,14 %
02.03.2022 10:16 7,3 C 12,8 C 3,3 C 56 % 1024,8 hPa 0,0 l/m 0 min 0 min 60 W/m 12,9 km/h (3 Bft) 91,49 %
02.03.2022 10:18 7,3 C 12,8 C 3,3 C 56 % 1024,8 hPa 0,0 l/m 0 min 0 min 107 W/m 6,4 km/h (2 Bft) 97,87 %
02.03.2022 10:20 7,4 C 12,8 C 3,3 C 55 % 1024,8 hPa 0,0 l/m 2 min 0 min 314 W/m 12,9 km/h (3 Bft) 97,83 %
02.03.2022 10:22 7,6 C 13,9 C 3,3 C 55 % 1024,8 hPa 0,0 l/m 2 min 0 min 361 W/m 6,4 km/h (2 Bft) 95,74 %
02.03.2022 10:24 7,7 C 15,0 C 3,3 C 55 % 1024,7 hPa 0,0 l/m 2 min 0 min 353 W/m 6,4 km/h (2 Bft) 95,74 %
02.03.2022 10:26 7,8 C 15,6 C 3,3 C 55 % 1024,7 hPa 0,0 l/m 2 min 0 min 269 W/m 6,4 km/h (2 Bft) 95,74 %
02.03.2022 10:28 7,9 C 15,6 C 3,9 C 55 % 1024,7 hPa 0,0 l/m 2 min 0 min 302 W/m 12,9 km/h (3 Bft) 59,62 %
02.03.2022 10:30 8,1 C 16,1 C 3,9 C 54 % 1024,7 hPa 0,0 l/m 2 min 0 min 349 W/m 6,4 km/h (2 Bft) 93,48 %
02.03.2022 10:32 8,2 C 15,6 C 3,9 C 53 % 1024,7 hPa 0,0 l/m 2 min 0 min 363 W/m 12,9 km/h (3 Bft) 96,00 %
02.03.2022 10:34 8,3 C 16,1 C 3,9 C 53 % 1024,7 hPa 0,0 l/m 2 min 0 min 428 W/m 6,4 km/h (2 Bft) 95,74 %
02.03.2022 10:36 8,4 C 16,1 C 4,4 C 53 % 1024,7 hPa 0,0 l/m 2 min 0 min 466 W/m 6,4 km/h (2 Bft) 95,74 %
02.03.2022 10:38 8,6 C 16,1 C 4,4 C 53 % 1024,6 hPa 0,0 l/m 2 min 0 min 469 W/m 12,9 km/h (3 Bft) 95,74 %
02.03.2022 10:40 8,7 C 17,2 C 4,4 C 53 % 1024,6 hPa 0,0 l/m 2 min 0 min 471 W/m 6,4 km/h (2 Bft) 95,65 %
02.03.2022 10:42 8,8 C 18,3 C 5,0 C 53 % 1024,6 hPa 0,0 l/m 2 min 0 min 466 W/m 6,4 km/h (2 Bft) 95,74 %
02.03.2022 10:44 9,0 C 18,9 C 5,0 C 53 % 1024,6 hPa 0,0 l/m 2 min 0 min 368 W/m 6,4 km/h (2 Bft) 95,74 %
02.03.2022 10:46 9,1 C 18,3 C 5,0 C 52 % 1024,7 hPa 0,0 l/m 2 min 0 min 381 W/m 3,2 km/h (1 Bft) 97,37 %
02.03.2022 10:48 9,2 C 18,3 C 5,0 C 52 % 1024,6 hPa 0,0 l/m 2 min 0 min 406 W/m 6,4 km/h (2 Bft) 95,74 %
02.03.2022 10:50 9,3 C 18,9 C 5,0 C 51 % 1024,6 hPa 0,0 l/m 2 min 0 min 347 W/m 6,4 km/h (2 Bft) 93,62 %
02.03.2022 10:52 9,4 C 19,4 C 5,6 C 51 % 1024,6 hPa 0,0 l/m 2 min 0 min 333 W/m 6,4 km/h (2 Bft) 94,55 %
02.03.2022 10:54 9,6 C 18,9 C 5,6 C 51 % 1024,6 hPa 0,0 l/m 2 min 0 min 378 W/m 6,4 km/h (2 Bft) 95,74 %
02.03.2022 10:56 9,6 C 19,4 C 5,6 C 51 % 1024,6 hPa 0,0 l/m 2 min 0 min 434 W/m 6,4 km/h (2 Bft) 94,74 %
02.03.2022 10:58 9,8 C 20,6 C 6,1 C 52 % 1024,6 hPa 0,0 l/m 2 min 0 min 425 W/m 6,4 km/h (2 Bft) 95,74 %
02.03.2022 11:00 9,9 C 20,6 C 7,2 C 50 % 1024,5 hPa 0,0 l/m 2 min 0 min 364 W/m 6,4 km/h (2 Bft) 97,87 %
02.03.2022 11:02 10,0 C 20,0 C 8,3 C 50 % 1024,6 hPa 0,0 l/m 2 min 0 min 417 W/m 6,4 km/h (2 Bft) 97,87 %
02.03.2022 11:04 10,1 C 20,6 C 9,4 C 50 % 1024,6 hPa 0,0 l/m 2 min 0 min 327 W/m 9,7 km/h (2 Bft) 97,87 %
02.03.2022 11:06 10,2 C 20,6 C 9,4 C 49 % 1024,6 hPa 0,0 l/m 2 min 0 min 383 W/m 9,7 km/h (2 Bft) 100,00 %
02.03.2022 11:08 10,2 C 19,4 C 9,4 C 49 % 1024,7 hPa 0,0 l/m 2 min 0 min 443 W/m 12,9 km/h (3 Bft) 97,87 %
02.03.2022 11:10 10,3 C 19,4 C 10,0 C 49 % 1024,6 hPa 0,0 l/m 2 min 0 min 489 W/m 6,4 km/h (2 Bft) 100,00 %
02.03.2022 11:12 10,3 C 19,4 C 10,6 C 48 % 1024,6 hPa 0,0 l/m 2 min 0 min 478 W/m 6,4 km/h (2 Bft) 100,00 %
02.03.2022 11:14 10,3 C 19,4 C 10,6 C 48 % 1024,6 hPa 0,0 l/m 2 min 0 min 513 W/m 9,7 km/h (2 Bft) 97,87 %
02.03.2022 11:16 10,3 C 18,3 C 11,1 C 46 % 1024,6 hPa 0,0 l/m 2 min 0 min 532 W/m 16,1 km/h (3 Bft) 98,08 %
02.03.2022 11:18 10,3 C 18,3 C 11,1 C 47 % 1024,6 hPa 0,0 l/m 2 min 0 min 539 W/m 9,7 km/h (2 Bft) 100,00 %
02.03.2022 11:20 10,3 C 18,9 C 11,1 C 47 % 1024,6 hPa 0,0 l/m 2 min 0 min 544 W/m 6,4 km/h (2 Bft) 100,00 %
02.03.2022 11:22 10,3 C 19,4 C 11,7 C 47 % 1024,6 hPa 0,0 l/m 2 min 0 min 545 W/m 12,9 km/h (3 Bft) 96,00 %
02.03.2022 11:24 10,4 C 18,9 C 11,7 C 46 % 1024,6 hPa 0,0 l/m 2 min 0 min 547 W/m 6,4 km/h (2 Bft) 100,00 %
02.03.2022 11:26 10,4 C 20,0 C 12,2 C 47 % 1024,6 hPa 0,0 l/m 2 min 0 min 545 W/m 12,9 km/h (3 Bft) 100,00 %
02.03.2022 11:28 10,6 C 20,6 C 12,8 C 47 % 1024,6 hPa 0,0 l/m 2 min 0 min 553 W/m 9,7 km/h (2 Bft) 97,83 %
02.03.2022 11:30 10,6 C 18,9 C 12,8 C 45 % 1024,6 hPa 0,0 l/m 2 min 0 min 555 W/m 12,9 km/h (3 Bft) 100,00 %
02.03.2022 11:32 10,6 C 20,0 C 11,7 C 46 % 1024,5 hPa 0,0 l/m 2 min 0 min 519 W/m 12,9 km/h (3 Bft) 100,00 %
02.03.2022 11:34 10,7 C 21,1 C 11,7 C 47 % 1024,5 hPa 0,0 l/m 2 min 0 min 546 W/m 6,4 km/h (2 Bft) 100,00 %
02.03.2022 11:36 10,8 C 21,7 C 12,2 C 47 % 1024,5 hPa 0,0 l/m 2 min 0 min 546 W/m 9,7 km/h (2 Bft) 95,74 %
02.03.2022 11:38 10,8 C 20,0 C 11,7 C 45 % 1024,5 hPa 0,0 l/m 2 min 0 min 544 W/m 16,1 km/h (3 Bft) 100,00 %
02.03.2022 11:40 10,8 C 20,0 C 12,2 C 45 % 1024,4 hPa 0,0 l/m 2 min 0 min 555 W/m 6,4 km/h (2 Bft) 100,00 %
02.03.2022 11:42 10,8 C 18,9 C 11,7 C 45 % 1024,4 hPa 0,0 l/m 2 min 0 min 553 W/m 16,1 km/h (3 Bft) 100,00 %
02.03.2022 11:44 10,8 C 17,8 C 11,1 C 45 % 1024,4 hPa 0,0 l/m 2 min 0 min 552 W/m 16,1 km/h (3 Bft) 97,37 %
02.03.2022 11:46 10,8 C 18,3 C 10,6 C 45 % 1024,4 hPa 0,0 l/m 2 min 0 min 548 W/m 12,9 km/h (3 Bft) 100,00 %
02.03.2022 11:48 10,8 C 17,2 C 10,0 C 45 % 1024,4 hPa 0,0 l/m 2 min 0 min 545 W/m 6,4 km/h (2 Bft) 100,00 %
02.03.2022 11:50 10,7 C 17,2 C 9,4 C 45 % 1024,4 hPa 0,0 l/m 2 min 0 min 505 W/m 12,9 km/h (3 Bft) 100,00 %
02.03.2022 11:52 10,7 C 17,8 C 9,4 C 46 % 1024,4 hPa 0,0 l/m 2 min 0 min 482 W/m 6,4 km/h (2 Bft) 100,00 %
02.03.2022 11:54 10,7 C 16,1 C 9,4 C 45 % 1024,4 hPa 0,0 l/m 2 min 0 min 427 W/m 16,1 km/h (3 Bft) 100,00 %
02.03.2022 11:56 10,7 C 16,1 C 9,4 C 45 % 1024,4 hPa 0,0 l/m 2 min 0 min 393 W/m 12,9 km/h (3 Bft) 100,00 %
02.03.2022 11:58 10,7 C 16,1 C 8,9 C 45 % 1024,4 hPa 0,0 l/m 2 min 0 min 418 W/m 12,9 km/h (3 Bft) 100,00 %
02.03.2022 12:00 10,7 C 15,6 C 8,9 C 44 % 1024,4 hPa 0,0 l/m 2 min 0 min 524 W/m 16,1 km/h (3 Bft) 97,37 %
02.03.2022 12:02 10,6 C 14,4 C 8,9 C 44 % 1024,4 hPa 0,0 l/m 2 min 0 min 355 W/m 19,3 km/h (3 Bft) 100,00 %
02.03.2022 12:04 10,6 C 14,4 C 8,9 C 45 % 1024,3 hPa 0,0 l/m 2 min 0 min 369 W/m 6,4 km/h (2 Bft) 97,83 %
02.03.2022 12:08 10,6 C 13,9 C 8,3 C 45 % 1024,3 hPa 0,0 l/m 0 min 0 min 194 W/m 12,9 km/h (3 Bft) 98,96 %
02.03.2022 12:10 10,5 C 14,4 C 8,9 C 46 % 1024,2 hPa 0,0 l/m 0 min 0 min 135 W/m 6,4 km/h (2 Bft) 100,00 %
02.03.2022 12:12 10,6 C 14,4 C 8,9 C 46 % 1024,2 hPa 0,0 l/m 0 min 0 min 210 W/m 12,9 km/h (3 Bft) 100,00 %
02.03.2022 12:14 10,6 C 13,9 C 8,3 C 46 % 1024,2 hPa 0,0 l/m 0 min 0 min 91 W/m 6,4 km/h (2 Bft) 98,08 %
02.03.2022 12:16 10,6 C 14,4 C 7,8 C 46 % 1024,2 hPa 0,0 l/m 0 min 0 min 130 W/m 6,4 km/h (2 Bft) 98,00 %
02.03.2022 12:18 10,7 C 14,4 C 7,8 C 47 % 1024,2 hPa 0,0 l/m 0 min 0 min 128 W/m 6,4 km/h (2 Bft) 100,00 %
02.03.2022 12:20 10,7 C 14,4 C 7,8 C 47 % 1024,1 hPa 0,0 l/m 0 min 0 min 196 W/m 6,4 km/h (2 Bft) 96,55 %
02.03.2022 12:22 10,7 C 15,0 C 7,8 C 46 % 1024,1 hPa 0,0 l/m 2 min 0 min 342 W/m 6,4 km/h (2 Bft) 97,87 %
02.03.2022 12:24 10,7 C 15,0 C 8,3 C 46 % 1024,1 hPa 0,0 l/m 2 min 0 min 303 W/m 12,9 km/h (3 Bft) 97,83 %
02.03.2022 12:26 10,6 C 13,9 C 8,9 C 46 % 1024,2 hPa 0,0 l/m 0 min 0 min 206 W/m 16,1 km/h (3 Bft) 97,87 %
02.03.2022 12:28 10,6 C 13,9 C 8,9 C 45 % 1024,2 hPa 0,0 l/m 2 min 0 min 319 W/m 12,9 km/h (3 Bft) 97,87 %
02.03.2022 12:30 10,6 C 13,9 C 8,9 C 45 % 1024,1 hPa 0,0 l/m 2 min 0 min 338 W/m 12,9 km/h (3 Bft) 97,87 %
02.03.2022 12:32 10,6 C 13,9 C 8,9 C 45 % 1024,1 hPa 0,0 l/m 2 min 0 min 423 W/m 6,4 km/h (2 Bft) 97,87 %
02.03.2022 12:34 10,7 C 14,4 C 9,4 C 46 % 1024,1 hPa 0,0 l/m 2 min 0 min 454 W/m 6,4 km/h (2 Bft) 97,87 %
02.03.2022 12:36 10,7 C 13,3 C 8,9 C 45 % 1024,0 hPa 0,0 l/m 2 min 0 min 365 W/m 16,1 km/h (3 Bft) 97,83 %
02.03.2022 12:38 10,7 C 13,3 C 8,3 C 45 % 1023,9 hPa 0,0 l/m 2 min 0 min 459 W/m 6,4 km/h (2 Bft) 97,87 %
02.03.2022 12:40 10,7 C 13,3 C 8,3 C 45 % 1023,9 hPa 0,0 l/m 2 min 0 min 465 W/m 6,4 km/h (2 Bft) 97,87 %
02.03.2022 12:42 10,7 C 13,9 C 7,8 C 45 % 1023,9 hPa 0,0 l/m 2 min 0 min 552 W/m 16,1 km/h (3 Bft) 97,87 %
02.03.2022 12:44 10,8 C 15,0 C 7,8 C 46 % 1023,9 hPa 0,0 l/m 2 min 0 min 587 W/m 6,4 km/h (2 Bft) 100,00 %
02.03.2022 12:46 10,9 C 15,0 C 7,8 C 45 % 1023,9 hPa 0,0 l/m 2 min 0 min 586 W/m 12,9 km/h (3 Bft) 100,00 %
02.03.2022 12:48 10,9 C 16,1 C 7,2 C 46 % 1023,8 hPa 0,0 l/m 2 min 0 min 589 W/m 12,9 km/h (3 Bft) 100,00 %
02.03.2022 12:50 10,9 C 16,7 C 7,2 C 45 % 1023,8 hPa 0,0 l/m 2 min 0 min 589 W/m 12,9 km/h (3 Bft) 100,00 %
02.03.2022 12:52 11,1 C 18,3 C 7,2 C 45 % 1023,8 hPa 0,0 l/m 2 min 0 min 589 W/m 6,4 km/h (2 Bft) 97,87 %
02.03.2022 12:54 11,2 C 19,4 C 7,2 C 45 % 1023,7 hPa 0,0 l/m 2 min 0 min 588 W/m 6,4 km/h (2 Bft) 100,00 %
02.03.2022 12:56 11,3 C 20,0 C 7,2 C 44 % 1023,7 hPa 0,0 l/m 2 min 0 min 586 W/m 6,4 km/h (2 Bft) 97,87 %
02.03.2022 12:58 11,3 C 21,1 C 7,2 C 44 % 1023,6 hPa 0,0 l/m 2 min 0 min 586 W/m 6,4 km/h (2 Bft) 100,00 %
02.03.2022 13:00 11,4 C 21,7 C 7,2 C 45 % 1023,6 hPa 0,0 l/m 2 min 0 min 586 W/m 19,3 km/h (3 Bft) 100,00 %
02.03.2022 13:02 11,5 C 23,3 C 7,2 C 44 % 1023,6 hPa 0,0 l/m 2 min 0 min 583 W/m 9,7 km/h (2 Bft) 100,00 %
02.03.2022 13:04 11,6 C 23,9 C 7,2 C 45 % 1023,6 hPa 0,0 l/m 2 min 0 min 581 W/m 9,7 km/h (2 Bft) 100,00 %
02.03.2022 13:06 11,6 C 24,4 C 7,2 C 45 % 1023,6 hPa 0,0 l/m 2 min 0 min 580 W/m 6,4 km/h (2 Bft) 100,00 %
02.03.2022 13:08 11,8 C 25,6 C 7,2 C 45 % 1023,6 hPa 0,0 l/m 2 min 0 min 560 W/m 6,4 km/h (2 Bft) 100,00 %
02.03.2022 13:10 11,9 C 25,6 C 7,2 C 45 % 1023,6 hPa 0,0 l/m 2 min 0 min 575 W/m 9,7 km/h (2 Bft) 100,00 %
02.03.2022 13:12 12,1 C 25,6 C 7,2 C 45 % 1023,5 hPa 0,0 l/m 2 min 0 min 585 W/m 12,9 km/h (3 Bft) 100,00 %
02.03.2022 13:14 12,1 C 24,4 C 7,2 C 43 % 1023,5 hPa 0,0 l/m 2 min 0 min 585 W/m 6,4 km/h (2 Bft) 100,00 %
02.03.2022 13:16 12,2 C 25,0 C 7,8 C 44 % 1023,5 hPa 0,0 l/m 2 min 0 min 582 W/m 9,7 km/h (2 Bft) 100,00 %
02.03.2022 13:18 12,3 C 25,6 C 7,8 C 43 % 1023,5 hPa 0,0 l/m 2 min 0 min 583 W/m 9,7 km/h (2 Bft) 100,00 %
02.03.2022 13:20 12,4 C 25,0 C 7,8 C 43 % 1023,5 hPa 0,0 l/m 2 min 0 min 584 W/m 9,7 km/h (2 Bft) 100,00 %
02.03.2022 13:22 12,5 C 26,1 C 7,8 C 43 % 1023,4 hPa 0,0 l/m 2 min 0 min 578 W/m 3,2 km/h (1 Bft) 100,00 %
02.03.2022 13:24 12,6 C 26,1 C 7,8 C 44 % 1023,4 hPa 0,0 l/m 2 min 0 min 577 W/m 12,9 km/h (3 Bft) 97,87 %
02.03.2022 13:26 12,6 C 24,4 C 7,8 C 43 % 1023,4 hPa 0,0 l/m 2 min 0 min 575 W/m 12,9 km/h (3 Bft) 95,74 %
02.03.2022 13:28 12,7 C 24,4 C 7,8 C 42 % 1023,3 hPa 0,0 l/m 2 min 0 min 576 W/m 6,4 km/h (2 Bft) 97,87 %
02.03.2022 13:30 12,7 C 25,0 C 7,8 C 43 % 1023,3 hPa 0,0 l/m 2 min 0 min 577 W/m 9,7 km/h (2 Bft) 97,87 %
02.03.2022 13:32 12,8 C 26,1 C 7,8 C 42 % 1023,2 hPa 0,0 l/m 2 min 0 min 577 W/m 9,7 km/h (2 Bft) 97,87 %
02.03.2022 13:34 12,8 C 26,7 C 7,8 C 42 % 1023,2 hPa 0,0 l/m 2 min 0 min 574 W/m 6,4 km/h (2 Bft) 97,83 %
02.03.2022 13:36 12,9 C 26,1 C 7,2 C 43 % 1023,2 hPa 0,0 l/m 2 min 0 min 576 W/m 6,4 km/h (2 Bft) 93,62 %
02.03.2022 13:38 13,0 C 26,1 C 7,8 C 43 % 1023,2 hPa 0,0 l/m 2 min 0 min 576 W/m 9,7 km/h (2 Bft) 95,74 %
02.03.2022 13:40 13,0 C 26,1 C 7,8 C 43 % 1023,2 hPa 0,0 l/m 2 min 0 min 578 W/m 6,4 km/h (2 Bft) 95,74 %
02.03.2022 13:42 13,0 C 26,7 C 7,8 C 42 % 1023,1 hPa 0,0 l/m 2 min 0 min 578 W/m 6,4 km/h (2 Bft) 97,87 %
02.03.2022 13:44 13,1 C 27,2 C 7,8 C 43 % 1023,0 hPa 0,0 l/m 2 min 0 min 579 W/m 9,7 km/h (2 Bft) 97,87 %
02.03.2022 13:46 13,1 C 27,2 C 7,8 C 43 % 1023,0 hPa 0,0 l/m 2 min 0 min 578 W/m 6,4 km/h (2 Bft) 97,83 %
02.03.2022 13:48 13,1 C 26,1 C 7,8 C 41 % 1022,9 hPa 0,0 l/m 2 min 0 min 576 W/m 9,7 km/h (2 Bft) 97,87 %
02.03.2022 13:50 13,1 C 26,7 C 7,8 C 41 % 1022,9 hPa 0,0 l/m 2 min 0 min 565 W/m 6,4 km/h (2 Bft) 97,87 %
02.03.2022 13:52 13,1 C 26,1 C 7,8 C 41 % 1022,9 hPa 0,0 l/m 2 min 0 min 536 W/m 12,9 km/h (3 Bft) 95,74 %
02.03.2022 13:54 13,0 C 25,6 C 7,8 C 41 % 1022,9 hPa 0,0 l/m 2 min 0 min 542 W/m 12,9 km/h (3 Bft) 95,74 %
02.03.2022 13:56 13,1 C 24,4 C 7,8 C 41 % 1022,8 hPa 0,0 l/m 2 min 0 min 555 W/m 6,4 km/h (2 Bft) 97,87 %
02.03.2022 13:58 13,1 C 23,9 C 7,8 C 42 % 1022,8 hPa 0,0 l/m 2 min 0 min 544 W/m 12,9 km/h (3 Bft) 95,65 %
02.03.2022 14:00 13,2 C 22,2 C 7,8 C 40 % 1022,7 hPa 0,0 l/m 2 min 0 min 546 W/m 12,9 km/h (3 Bft) 95,74 %
02.03.2022 14:02 13,2 C 23,3 C 7,8 C 42 % 1022,7 hPa 0,0 l/m 2 min 0 min 560 W/m 9,7 km/h (2 Bft) 95,74 %
02.03.2022 14:04 13,2 C 23,3 C 7,8 C 41 % 1022,7 hPa 0,0 l/m 2 min 0 min 563 W/m 9,7 km/h (2 Bft) 97,87 %
02.03.2022 14:06 13,2 C 23,3 C 7,8 C 41 % 1022,7 hPa 0,0 l/m 2 min 0 min 556 W/m 9,7 km/h (2 Bft) 97,87 %
02.03.2022 14:08 13,2 C 23,3 C 7,8 C 41 % 1022,6 hPa 0,0 l/m 2 min 0 min 558 W/m 12,9 km/h (3 Bft) 94,59 %
02.03.2022 14:10 13,2 C 23,9 C 7,8 C 41 % 1022,6 hPa 0,0 l/m 2 min 0 min 556 W/m 9,7 km/h (2 Bft) 95,74 %
02.03.2022 14:12 13,2 C 23,3 C 7,8 C 41 % 1022,6 hPa 0,0 l/m 2 min 0 min 556 W/m 3,2 km/h (1 Bft) 93,48 %
02.03.2022 14:14 13,2 C 22,2 C 7,8 C 41 % 1022,6 hPa 0,0 l/m 2 min 0 min 546 W/m 6,4 km/h (2 Bft) 95,74 %
02.03.2022 14:16 13,2 C 21,7 C 7,8 C 40 % 1022,6 hPa 0,0 l/m 2 min 0 min 544 W/m 6,4 km/h (2 Bft) 95,74 %
02.03.2022 14:18 13,2 C 20,6 C 7,8 C 40 % 1022,6 hPa 0,0 l/m 2 min 0 min 531 W/m 6,4 km/h (2 Bft) 97,87 %
02.03.2022 14:20 13,3 C 21,1 C 7,8 C 40 % 1022,6 hPa 0,0 l/m 2 min 0 min 516 W/m 6,4 km/h (2 Bft) 97,87 %
02.03.2022 14:22 13,3 C 21,1 C 7,8 C 39 % 1022,6 hPa 0,0 l/m 2 min 0 min 507 W/m 9,7 km/h (2 Bft) 95,74 %
02.03.2022 14:24 13,4 C 21,7 C 7,8 C 39 % 1022,6 hPa 0,0 l/m 2 min 0 min 495 W/m 3,2 km/h (1 Bft) 97,83 %
02.03.2022 14:26 13,5 C 22,2 C 7,8 C 40 % 1022,6 hPa 0,0 l/m 2 min 0 min 478 W/m 9,7 km/h (2 Bft) 97,87 %
02.03.2022 14:28 13,4 C 22,2 C 7,8 C 40 % 1022,6 hPa 0,0 l/m 2 min 0 min 463 W/m 16,1 km/h (3 Bft) 97,87 %
02.03.2022 14:30 13,3 C 21,1 C 7,8 C 40 % 1022,6 hPa 0,0 l/m 2 min 0 min 448 W/m 12,9 km/h (3 Bft) 95,74 %
02.03.2022 14:32 13,2 C 19,4 C 7,8 C 39 % 1022,5 hPa 0,0 l/m 2 min 0 min 422 W/m 9,7 km/h (2 Bft) 95,74 %
02.03.2022 14:34 13,1 C 19,4 C 7,8 C 39 % 1022,5 hPa 0,0 l/m 2 min 0 min 419 W/m 6,4 km/h (2 Bft) 95,74 %
02.03.2022 14:36 13,0 C 20,0 C 7,8 C 40 % 1022,5 hPa 0,0 l/m 2 min 0 min 405 W/m 6,4 km/h (2 Bft) 96,55 %
02.03.2022 14:38 12,9 C 20,0 C 7,8 C 39 % 1022,5 hPa 0,0 l/m 2 min 0 min 401 W/m 9,7 km/h (2 Bft) 97,14 %
02.03.2022 14:40 13,0 C 20,6 C 7,8 C 40 % 1022,5 hPa 0,0 l/m 2 min 0 min 390 W/m 3,2 km/h (1 Bft) 95,74 %
02.03.2022 14:42 12,9 C 20,0 C 7,8 C 40 % 1022,4 hPa 0,0 l/m 2 min 0 min 385 W/m 12,9 km/h (3 Bft) 97,87 %
02.03.2022 14:44 12,9 C 18,9 C 7,8 C 39 % 1022,4 hPa 0,0 l/m 2 min 0 min 387 W/m 16,1 km/h (3 Bft) 97,87 %
02.03.2022 14:46 12,9 C 19,4 C 7,8 C 40 % 1022,4 hPa 0,0 l/m 2 min 0 min 400 W/m 9,7 km/h (2 Bft) 97,83 %
02.03.2022 14:48 12,8 C 20,0 C 7,8 C 39 % 1022,4 hPa 0,0 l/m 2 min 0 min 397 W/m 9,7 km/h (2 Bft) 93,62 %
02.03.2022 14:50 12,8 C 20,0 C 7,8 C 39 % 1022,4 hPa 0,0 l/m 2 min 0 min 384 W/m 9,7 km/h (2 Bft) 95,74 %
02.03.2022 14:52 12,8 C 19,4 C 7,8 C 39 % 1022,3 hPa 0,0 l/m 2 min 0 min 394 W/m 9,7 km/h (2 Bft) 95,74 %
02.03.2022 14:54 12,8 C 18,3 C 8,3 C 40 % 1022,4 hPa 0,0 l/m 2 min 0 min 419 W/m 9,7 km/h (2 Bft) 93,62 %
02.03.2022 14:56 12,8 C 17,8 C 8,3 C 39 % 1022,4 hPa 0,0 l/m 2 min 0 min 424 W/m 6,4 km/h (2 Bft) 93,62 %
02.03.2022 14:58 12,7 C 17,8 C 8,3 C 38 % 1022,3 hPa 0,0 l/m 2 min 0 min 436 W/m 6,4 km/h (2 Bft) 95,65 %
02.03.2022 15:00 12,8 C 17,2 C 7,8 C 38 % 1022,3 hPa 0,0 l/m 2 min 0 min 441 W/m 12,9 km/h (3 Bft) 95,74 %
02.03.2022 15:02 12,8 C 17,2 C 7,8 C 38 % 1022,2 hPa 0,0 l/m 2 min 0 min 438 W/m 12,9 km/h (3 Bft) 93,62 %
02.03.2022 15:04 12,9 C 17,2 C 7,8 C 37 % 1022,3 hPa 0,0 l/m 2 min 0 min 428 W/m 6,4 km/h (2 Bft) 95,74 %
02.03.2022 15:06 12,9 C 18,3 C 8,3 C 38 % 1022,2 hPa 0,0 l/m 2 min 0 min 417 W/m 9,7 km/h (2 Bft) 91,49 %
02.03.2022 15:08 12,8 C 19,4 C 8,3 C 40 % 1022,2 hPa 0,0 l/m 2 min 0 min 399 W/m 9,7 km/h (2 Bft) 95,74 %
02.03.2022 15:10 12,8 C 18,9 C 8,3 C 38 % 1022,2 hPa 0,0 l/m 2 min 0 min 393 W/m 12,9 km/h (3 Bft) 95,65 %
02.03.2022 15:12 12,8 C 18,9 C 8,3 C 39 % 1022,2 hPa 0,0 l/m 2 min 0 min 397 W/m 3,2 km/h (1 Bft) 97,87 %
02.03.2022 15:14 12,9 C 18,3 C 8,3 C 39 % 1022,1 hPa 0,0 l/m 2 min 0 min 407 W/m 9,7 km/h (2 Bft) 95,74 %
02.03.2022 15:16 13,0 C 18,9 C 8,3 C 39 % 1022,1 hPa 0,0 l/m 2 min 0 min 402 W/m 12,9 km/h (3 Bft) 97,87 %
02.03.2022 15:18 13,0 C 18,3 C 8,3 C 38 % 1022,1 hPa 0,0 l/m 2 min 0 min 408 W/m 12,9 km/h (3 Bft) 97,87 %
02.03.2022 15:20 13,1 C 17,8 C 8,3 C 38 % 1022,1 hPa 0,0 l/m 2 min 0 min 387 W/m 6,4 km/h (2 Bft) 97,87 %
02.03.2022 15:22 13,1 C 17,2 C 8,3 C 38 % 1022,1 hPa 0,0 l/m 2 min 0 min 267 W/m 9,7 km/h (2 Bft) 97,83 %
02.03.2022 15:24 13,1 C 18,3 C 8,3 C 39 % 1022,1 hPa 0,0 l/m 2 min 0 min 357 W/m 6,4 km/h (2 Bft) 97,87 %
02.03.2022 15:26 13,2 C 18,9 C 8,3 C 39 % 1022,1 hPa 0,0 l/m 2 min 0 min 406 W/m 3,2 km/h (1 Bft) 95,74 %
02.03.2022 15:28 13,3 C 19,4 C 8,3 C 40 % 1022,0 hPa 0,0 l/m 2 min 0 min 390 W/m 6,4 km/h (2 Bft) 95,74 %
02.03.2022 15:30 13,3 C 20,6 C 8,3 C 40 % 1022,0 hPa 0,0 l/m 2 min 0 min 395 W/m 9,7 km/h (2 Bft) 97,87 %
02.03.2022 15:32 13,3 C 21,1 C 7,8 C 39 % 1022,0 hPa 0,0 l/m 2 min 0 min 394 W/m 6,4 km/h (2 Bft) 95,74 %
02.03.2022 15:34 13,3 C 21,7 C 7,8 C 38 % 1022,0 hPa 0,0 l/m 2 min 0 min 396 W/m 6,4 km/h (2 Bft) 97,83 %
02.03.2022 15:36 13,3 C 21,1 C 7,8 C 39 % 1022,0 hPa 0,0 l/m 2 min 0 min 390 W/m 9,7 km/h (2 Bft) 95,74 %
02.03.2022 15:38 13,3 C 20,6 C 7,8 C 40 % 1022,0 hPa 0,0 l/m 2 min 0 min 385 W/m 9,7 km/h (2 Bft) 97,87 %
02.03.2022 15:40 13,2 C 20,6 C 7,8 C 40 % 1022,0 hPa 0,0 l/m 2 min 0 min 370 W/m 6,4 km/h (2 Bft) 97,87 %
02.03.2022 15:42 13,2 C 20,6 C 7,8 C 40 % 1022,0 hPa 0,0 l/m 2 min 0 min 336 W/m 12,9 km/h (3 Bft) 97,87 %
02.03.2022 15:44 13,2 C 21,1 C 7,2 C 40 % 1022,0 hPa 0,0 l/m 2 min 0 min 340 W/m 9,7 km/h (2 Bft) 95,74 %
02.03.2022 15:46 13,2 C 20,0 C 7,2 C 39 % 1021,9 hPa 0,0 l/m 2 min 0 min 343 W/m 9,7 km/h (2 Bft) 100,00 %
02.03.2022 15:48 13,2 C 20,0 C 7,2 C 40 % 1021,9 hPa 0,0 l/m 2 min 0 min 342 W/m 3,2 km/h (1 Bft) 100,00 %
02.03.2022 15:50 13,2 C 19,4 C 7,2 C 39 % 1021,8 hPa 0,0 l/m 2 min 0 min 336 W/m 3,2 km/h (1 Bft) 97,87 %
02.03.2022 15:52 13,2 C 19,4 C 7,2 C 40 % 1021,8 hPa 0,0 l/m 2 min 0 min 339 W/m 6,4 km/h (2 Bft) 100,00 %
02.03.2022 15:54 13,2 C 20,6 C 7,2 C 40 % 1021,8 hPa 0,0 l/m 2 min 0 min 336 W/m 9,7 km/h (2 Bft) 100,00 %
02.03.2022 15:56 13,2 C 20,6 C 7,2 C 40 % 1021,8 hPa 0,0 l/m 2 min 0 min 280 W/m 9,7 km/h (2 Bft) 100,00 %
02.03.2022 15:58 13,2 C 20,0 C 6,7 C 39 % 1021,8 hPa 0,0 l/m 2 min 0 min 290 W/m 6,4 km/h (2 Bft) 100,00 %
02.03.2022 16:00 13,2 C 20,0 C 6,7 C 40 % 1021,8 hPa 0,0 l/m 2 min 0 min 311 W/m 9,7 km/h (2 Bft) 100,00 %
02.03.2022 16:02 13,2 C 20,0 C 6,7 C 41 % 1021,8 hPa 0,0 l/m 2 min 0 min 304 W/m 9,7 km/h (2 Bft) 100,00 %
02.03.2022 16:04 13,1 C 19,4 C 6,7 C 40 % 1021,7 hPa 0,0 l/m 2 min 0 min 284 W/m 6,4 km/h (2 Bft) 97,87 %
02.03.2022 16:06 13,1 C 19,4 C 6,7 C 40 % 1021,8 hPa 0,0 l/m 2 min 0 min 281 W/m 9,7 km/h (2 Bft) 100,00 %
02.03.2022 16:08 13,1 C 19,4 C 6,7 C 41 % 1021,7 hPa 0,0 l/m 2 min 0 min 265 W/m 6,4 km/h (2 Bft) 97,83 %
02.03.2022 16:10 13,1 C 17,8 C 6,7 C 41 % 1021,7 hPa 0,0 l/m 2 min 0 min 260 W/m 12,9 km/h (3 Bft) 97,87 %
02.03.2022 16:12 13,0 C 16,1 C 6,7 C 42 % 1021,7 hPa 0,0 l/m 2 min 0 min 267 W/m 6,4 km/h (2 Bft) 95,74 %
02.03.2022 16:14 12,9 C 15,0 C 6,7 C 43 % 1021,7 hPa 0,0 l/m 2 min 0 min 264 W/m 6,4 km/h (2 Bft) 97,87 %
02.03.2022 16:16 12,9 C 13,9 C 6,7 C 41 % 1021,7 hPa 0,0 l/m 2 min 0 min 250 W/m 6,4 km/h (2 Bft) 97,87 %
02.03.2022 16:18 12,8 C 12,8 C 6,7 C 42 % 1021,7 hPa 0,0 l/m 2 min 0 min 243 W/m 3,2 km/h (1 Bft) 95,74 %
02.03.2022 16:20 12,8 C 12,2 C 6,7 C 41 % 1021,7 hPa 0,0 l/m 2 min 0 min 229 W/m 12,9 km/h (3 Bft) 95,65 %
02.03.2022 16:22 12,8 C 12,2 C 6,7 C 41 % 1021,6 hPa 0,0 l/m 2 min 0 min 209 W/m 9,7 km/h (2 Bft) 97,87 %
02.03.2022 16:24 12,8 C 11,7 C 6,7 C 43 % 1021,6 hPa 0,0 l/m 2 min 0 min 200 W/m 6,4 km/h (2 Bft) 97,87 %
02.03.2022 16:26 12,7 C 11,7 C 6,7 C 43 % 1021,7 hPa 0,0 l/m 2 min 0 min 195 W/m 6,4 km/h (2 Bft) 97,87 %
02.03.2022 16:28 12,6 C 11,1 C 6,1 C 42 % 1021,6 hPa 0,0 l/m 2 min 0 min 184 W/m 6,4 km/h (2 Bft) 97,87 %
02.03.2022 16:30 12,6 C 11,1 C 6,1 C 43 % 1021,6 hPa 0,0 l/m 2 min 0 min 178 W/m 6,4 km/h (2 Bft) 97,87 %
02.03.2022 16:32 12,5 C 11,1 C 6,1 C 44 % 1021,6 hPa 0,0 l/m 2 min 0 min 151 W/m 6,4 km/h (2 Bft) 97,83 %
02.03.2022 16:34 12,4 C 10,6 C 6,1 C 44 % 1021,6 hPa 0,0 l/m 2 min 0 min 152 W/m 6,4 km/h (2 Bft) 97,87 %
02.03.2022 16:36 12,2 C 10,6 C 6,1 C 44 % 1021,5 hPa 0,0 l/m 2 min 0 min 120 W/m 9,7 km/h (2 Bft) 95,74 %
02.03.2022 16:38 12,1 C 10,6 C 6,1 C 46 % 1021,5 hPa 0,0 l/m 0 min 0 min 63 W/m 6,4 km/h (2 Bft) 97,87 %
02.03.2022 16:40 11,9 C 10,6 C 5,6 C 45 % 1021,5 hPa 0,0 l/m 0 min 0 min 43 W/m 6,4 km/h (2 Bft) 97,87 %
02.03.2022 16:42 11,8 C 10,0 C 5,6 C 45 % 1021,5 hPa 0,0 l/m 0 min 0 min 41 W/m 6,4 km/h (2 Bft) 97,87 %
02.03.2022 16:44 11,7 C 10,0 C 5,6 C 45 % 1021,5 hPa 0,0 l/m 0 min 0 min 40 W/m 6,4 km/h (2 Bft) 97,83 %
02.03.2022 16:46 11,6 C 10,0 C 5,6 C 45 % 1021,5 hPa 0,0 l/m 0 min 0 min 38 W/m 3,2 km/h (1 Bft) 97,87 %
02.03.2022 16:48 11,6 C 10,0 C 5,6 C 46 % 1021,4 hPa 0,0 l/m 0 min 0 min 36 W/m 6,4 km/h (2 Bft) 100,00 %
02.03.2022 16:50 11,4 C 10,0 C 5,6 C 46 % 1021,4 hPa 0,0 l/m 0 min 0 min 33 W/m 6,4 km/h (2 Bft) 100,00 %
02.03.2022 16:52 11,4 C 10,0 C 5,6 C 46 % 1021,4 hPa 0,0 l/m 0 min 0 min 32 W/m 6,4 km/h (2 Bft) 97,87 %
02.03.2022 16:54 11,3 C 10,0 C 5,6 C 46 % 1021,4 hPa 0,0 l/m 0 min 0 min 32 W/m 3,2 km/h (1 Bft) 50,00 %
02.03.2022 16:56 11,2 C 10,0 C 5,6 C 47 % 1021,3 hPa 0,0 l/m 0 min 0 min 32 W/m 3,2 km/h (1 Bft) 100,00 %
02.03.2022 16:58 11,2 C 9,4 C 5,0 C 48 % 1021,4 hPa 0,0 l/m 0 min 0 min 32 W/m 6,4 km/h (2 Bft) 100,00 %
02.03.2022 17:00 11,1 C 9,4 C 5,0 C 48 % 1021,3 hPa 0,0 l/m 0 min 0 min 31 W/m 6,4 km/h (2 Bft) 100,00 %
02.03.2022 17:02 11,0 C 9,4 C 5,0 C 47 % 1021,3 hPa 0,0 l/m 0 min 0 min 29 W/m 6,4 km/h (2 Bft) 100,00 %
02.03.2022 17:04 10,9 C 9,4 C 5,0 C 48 % 1021,2 hPa 0,0 l/m 0 min 0 min 26 W/m 6,4 km/h (2 Bft) 100,00 %
02.03.2022 17:06 10,8 C 9,4 C 5,0 C 48 % 1021,2 hPa 0,0 l/m 0 min 0 min 28 W/m 9,7 km/h (2 Bft) 100,00 %
02.03.2022 17:08 10,8 C 9,4 C 5,0 C 49 % 1021,2 hPa 0,0 l/m 0 min 0 min 28 W/m 6,4 km/h (2 Bft) 100,00 %
02.03.2022 17:10 10,7 C 9,4 C 5,0 C 49 % 1021,2 hPa 0,0 l/m 0 min 0 min 27 W/m 3,2 km/h (1 Bft) 100,00 %
02.03.2022 17:12 10,7 C 9,4 C 5,0 C 49 % 1021,2 hPa 0,0 l/m 0 min 0 min 26 W/m 6,4 km/h (2 Bft) 100,00 %
02.03.2022 17:14 10,6 C 8,9 C 5,0 C 49 % 1021,3 hPa 0,0 l/m 0 min 0 min 27 W/m 3,2 km/h (1 Bft) 100,00 %
02.03.2022 17:16 10,6 C 8,9 C 5,0 C 50 % 1021,2 hPa 0,0 l/m 0 min 0 min 28 W/m 3,2 km/h (1 Bft) 100,00 %
02.03.2022 17:18 10,6 C 8,9 C 4,4 C 49 % 1021,3 hPa 0,0 l/m 0 min 0 min 26 W/m 3,2 km/h (1 Bft) 100,00 %
02.03.2022 17:20 10,5 C 8,9 C 4,4 C 49 % 1021,3 hPa 0,0 l/m 0 min 0 min 26 W/m 3,2 km/h (1 Bft) 100,00 %
02.03.2022 17:22 10,4 C 8,9 C 4,4 C 49 % 1021,3 hPa 0,0 l/m 0 min 0 min 25 W/m 3,2 km/h (1 Bft) 97,87 %
02.03.2022 17:24 10,4 C 8,9 C 4,4 C 49 % 1021,2 hPa 0,0 l/m 0 min 0 min 24 W/m 3,2 km/h (1 Bft) 97,87 %
02.03.2022 17:26 10,3 C 8,3 C 4,4 C 51 % 1021,2 hPa 0,0 l/m 0 min 0 min 23 W/m 6,4 km/h (2 Bft) 95,74 %
02.03.2022 17:28 10,3 C 8,3 C 4,4 C 51 % 1021,2 hPa 0,0 l/m 0 min 0 min 24 W/m 6,4 km/h (2 Bft) 97,87 %
02.03.2022 17:30 10,2 C 8,3 C 4,4 C 52 % 1021,2 hPa 0,0 l/m 0 min 0 min 25 W/m 9,7 km/h (2 Bft) 97,83 %
02.03.2022 17:32 10,1 C 8,3 C 4,4 C 53 % 1021,2 hPa 0,0 l/m 0 min 0 min 25 W/m 6,4 km/h (2 Bft) 100,00 %
02.03.2022 17:34 10,0 C 8,3 C 4,4 C 53 % 1021,2 hPa 0,0 l/m 0 min 0 min 25 W/m 6,4 km/h (2 Bft) 100,00 %
02.03.2022 17:36 9,9 C 8,3 C 3,9 C 52 % 1021,2 hPa 0,0 l/m 0 min 0 min 25 W/m 6,4 km/h (2 Bft) 97,87 %
02.03.2022 17:38 9,8 C 8,3 C 3,9 C 52 % 1021,2 hPa 0,0 l/m 0 min 0 min 24 W/m 6,4 km/h (2 Bft) 95,74 %
02.03.2022 17:40 9,7 C 7,8 C 3,9 C 52 % 1021,2 hPa 0,0 l/m 0 min 0 min 23 W/m 6,4 km/h (2 Bft) 93,62 %
02.03.2022 17:42 9,7 C 7,8 C 3,9 C 53 % 1021,2 hPa 0,0 l/m 0 min 0 min 21 W/m 6,4 km/h (2 Bft) 95,65 %
02.03.2022 17:44 9,6 C 7,8 C 3,9 C 53 % 1021,2 hPa 0,0 l/m 0 min 0 min 20 W/m 3,2 km/h (1 Bft) 95,74 %
02.03.2022 17:46 9,5 C 7,8 C 3,9 C 54 % 1021,2 hPa 0,0 l/m 0 min 0 min 19 W/m 3,2 km/h (1 Bft) 95,74 %
02.03.2022 17:48 9,4 C 7,8 C 3,9 C 54 % 1021,2 hPa 0,0 l/m 0 min 0 min 18 W/m 6,4 km/h (2 Bft) 95,74 %
02.03.2022 17:50 9,3 C 7,8 C 3,9 C 54 % 1021,2 hPa 0,0 l/m 0 min 0 min 17 W/m 3,2 km/h (1 Bft) 95,74 %
02.03.2022 17:52 9,2 C 7,8 C 3,3 C 54 % 1021,3 hPa 0,0 l/m 0 min 0 min 16 W/m 3,2 km/h (1 Bft) 95,74 %
02.03.2022 17:54 9,2 C 7,2 C 3,3 C 54 % 1021,3 hPa 0,0 l/m 0 min 0 min 14 W/m 6,4 km/h (2 Bft) 93,48 %
02.03.2022 17:56 9,1 C 7,2 C 3,3 C 54 % 1021,3 hPa 0,0 l/m 0 min 0 min 13 W/m 3,2 km/h (1 Bft) 95,74 %
02.03.2022 17:58 9,1 C 7,2 C 3,3 C 55 % 1021,3 hPa 0,0 l/m 0 min 0 min 12 W/m 3,2 km/h (1 Bft) 95,74 %
02.03.2022 18:00 8,9 C 7,2 C 3,3 C 55 % 1021,3 hPa 0,0 l/m 0 min 0 min 11 W/m 3,2 km/h (1 Bft) 95,74 %
02.03.2022 18:02 8,9 C 7,2 C 3,3 C 55 % 1021,3 hPa 0,0 l/m 0 min 0 min 10 W/m 6,4 km/h (2 Bft) 95,74 %
02.03.2022 18:04 8,8 C 7,2 C 3,3 C 55 % 1021,3 hPa 0,0 l/m 0 min 0 min 9 W/m 3,2 km/h (1 Bft) 95,65 %
02.03.2022 18:08 8,7 C 6,7 C 2,8 C 55 % 1021,3 hPa 0,0 l/m 0 min 0 min 7 W/m 6,4 km/h (2 Bft) 96,84 %
02.03.2022 18:10 8,6 C 6,7 C 2,8 C 55 % 1021,3 hPa 0,0 l/m 0 min 0 min 5 W/m 3,2 km/h (1 Bft) 97,87 %
02.03.2022 18:12 8,5 C 6,7 C 2,8 C 55 % 1021,3 hPa 0,0 l/m 0 min 0 min 5 W/m 3,2 km/h (1 Bft) 100,00 %
02.03.2022 18:14 8,4 C 6,7 C 2,8 C 55 % 1021,4 hPa 0,0 l/m 0 min 0 min 3 W/m 3,2 km/h (1 Bft) 97,87 %
02.03.2022 18:16 8,4 C 6,7 C 2,8 C 55 % 1021,3 hPa 0,0 l/m 0 min 0 min 0 W/m 3,2 km/h (1 Bft) 100,00 %
02.03.2022 18:18 8,3 C 6,7 C 2,8 C 55 % 1021,3 hPa 0,0 l/m 0 min 0 min 0 W/m 3,2 km/h (1 Bft) 100,00 %
02.03.2022 18:20 8,3 C 6,1 C 2,8 C 54 % 1021,3 hPa 0,0 l/m 0 min 0 min 0 W/m 3,2 km/h (1 Bft) 97,87 %
02.03.2022 18:22 8,2 C 6,1 C 2,2 C 54 % 1021,4 hPa 0,0 l/m 0 min 0 min 0 W/m 3,2 km/h (1 Bft) 100,00 %
02.03.2022 18:24 8,2 C 6,1 C 2,2 C 54 % 1021,4 hPa 0,0 l/m 0 min 0 min 0 W/m 3,2 km/h (1 Bft) 100,00 %
02.03.2022 18:26 8,1 C 6,1 C 2,2 C 55 % 1021,3 hPa 0,0 l/m 0 min 0 min 0 W/m 3,2 km/h (1 Bft) 100,00 %
02.03.2022 18:28 8,0 C 6,1 C 2,2 C 55 % 1021,4 hPa 0,0 l/m 0 min 0 min 0 W/m 6,4 km/h (2 Bft) 100,00 %
02.03.2022 18:30 8,0 C 6,1 C 2,2 C 55 % 1021,4 hPa 0,0 l/m 0 min 0 min 0 W/m 3,2 km/h (1 Bft) 100,00 %
02.03.2022 18:32 7,9 C 5,6 C 2,2 C 55 % 1021,4 hPa 0,0 l/m 0 min 0 min 0 W/m 3,2 km/h (1 Bft) 97,87 %
02.03.2022 18:34 7,8 C 5,6 C 2,2 C 56 % 1021,4 hPa 0,0 l/m 0 min 0 min 0 W/m 0,0 km/h (0 Bft) 50,00 %
02.03.2022 18:36 7,8 C 5,6 C 1,7 C 56 % 1021,4 hPa 0,0 l/m 0 min 0 min 0 W/m 3,2 km/h (1 Bft) 100,00 %
02.03.2022 18:38 7,7 C 5,6 C 1,7 C 56 % 1021,4 hPa 0,0 l/m 0 min 0 min 0 W/m 0,0 km/h (0 Bft) 97,87 %
02.03.2022 18:40 7,7 C 5,6 C 1,7 C 57 % 1021,3 hPa 0,0 l/m 0 min 0 min 0 W/m 3,2 km/h (1 Bft) 100,00 %
02.03.2022 18:42 7,6 C 5,0 C 1,7 C 57 % 1021,3 hPa 0,0 l/m 0 min 0 min 0 W/m 0,0 km/h (0 Bft) 97,87 %
02.03.2022 18:44 7,6 C 5,0 C 1,1 C 58 % 1021,3 hPa 0,0 l/m 0 min 0 min 0 W/m 3,2 km/h (1 Bft) 100,00 %
02.03.2022 18:46 7,4 C 5,0 C 1,1 C 58 % 1021,4 hPa 0,0 l/m 0 min 0 min 0 W/m 0,0 km/h (0 Bft) 97,87 %
02.03.2022 18:48 7,4 C 5,0 C 1,1 C 58 % 1021,3 hPa 0,0 l/m 0 min 0 min 0 W/m 0,0 km/h (0 Bft) 100,00 %
02.03.2022 18:50 7,3 C 5,0 C 1,1 C 58 % 1021,3 hPa 0,0 l/m 0 min 0 min 0 W/m 0,0 km/h (0 Bft) 100,00 %
02.03.2022 18:52 7,3 C 5,0 C 1,1 C 58 % 1021,4 hPa 0,0 l/m 0 min 0 min 0 W/m 0,0 km/h (0 Bft) 97,87 %
02.03.2022 18:54 7,2 C 5,0 C 1,1 C 58 % 1021,4 hPa 0,0 l/m 0 min 0 min 0 W/m 0,0 km/h (0 Bft) 93,62 %
02.03.2022 18:56 7,1 C 4,4 C 0,6 C 60 % 1021,5 hPa 0,0 l/m 0 min 0 min 0 W/m 0,0 km/h (0 Bft) 97,87 %
02.03.2022 18:58 7,0 C 4,4 C 0,6 C 60 % 1021,5 hPa 0,0 l/m 0 min 0 min 0 W/m 0,0 km/h (0 Bft) 97,87 %
02.03.2022 19:00 6,9 C 5,0 C 0,6 C 59 % 1021,4 hPa 0,0 l/m 0 min 0 min 0 W/m 0,0 km/h (0 Bft) 97,87 %
02.03.2022 19:02 6,9 C 5,0 C 0,6 C 60 % 1021,4 hPa 0,0 l/m 0 min 0 min 0 W/m 0,0 km/h (0 Bft) 95,65 %
02.03.2022 19:04 6,8 C 5,0 C 0,6 C 60 % 1021,4 hPa 0,0 l/m 0 min 0 min 0 W/m 3,2 km/h (1 Bft) 97,87 %
02.03.2022 19:06 6,8 C 5,0 C 0,6 C 59 % 1021,4 hPa 0,0 l/m 0 min 0 min 0 W/m 6,4 km/h (2 Bft) 95,74 %
02.03.2022 19:08 6,7 C 5,0 C 0,6 C 59 % 1021,4 hPa 0,0 l/m 0 min 0 min 0 W/m 0,0 km/h (0 Bft) 97,87 %
02.03.2022 19:10 6,7 C 5,0 C 0,6 C 59 % 1021,4 hPa 0,0 l/m 0 min 0 min 0 W/m 3,2 km/h (1 Bft) 95,74 %
02.03.2022 19:12 6,6 C 5,0 C 0,6 C 59 % 1021,4 hPa 0,0 l/m 0 min 0 min 0 W/m 3,2 km/h (1 Bft) 93,62 %
02.03.2022 19:14 6,6 C 5,0 C 0,6 C 59 % 1021,4 hPa 0,0 l/m 0 min 0 min 0 W/m 3,2 km/h (1 Bft) 97,83 %
02.03.2022 19:16 6,5 C 5,0 C 0,6 C 59 % 1021,4 hPa 0,0 l/m 0 min 0 min 0 W/m 0,0 km/h (0 Bft) 95,74 %
02.03.2022 19:18 6,5 C 5,0 C 0,6 C 60 % 1021,4 hPa 0,0 l/m 0 min 0 min 0 W/m 3,2 km/h (1 Bft) 95,74 %
02.03.2022 19:20 6,4 C 5,0 C 0,6 C 60 % 1021,4 hPa 0,0 l/m 0 min 0 min 0 W/m 3,2 km/h (1 Bft) 95,74 %
02.03.2022 19:22 6,4 C 5,0 C 0,6 C 59 % 1021,3 hPa 0,0 l/m 0 min 0 min 0 W/m 3,2 km/h (1 Bft) 93,62 %
02.03.2022 19:24 6,3 C 5,0 C 0,6 C 59 % 1021,4 hPa 0,0 l/m 0 min 0 min 0 W/m 0,0 km/h (0 Bft) 95,74 %
02.03.2022 19:26 6,3 C 5,0 C 0,6 C 59 % 1021,3 hPa 0,0 l/m 0 min 0 min 0 W/m 3,2 km/h (1 Bft) 93,48 %
02.03.2022 19:28 6,2 C 5,0 C 0,6 C 59 % 1021,3 hPa 0,0 l/m 0 min 0 min 0 W/m 3,2 km/h (1 Bft) 89,36 %
02.03.2022 19:30 6,2 C 5,0 C 0,6 C 59 % 1021,4 hPa 0,0 l/m 0 min 0 min 0 W/m 3,2 km/h (1 Bft) 91,49 %
02.03.2022 19:32 6,2 C 5,0 C 0,6 C 60 % 1021,3 hPa 0,0 l/m 0 min 0 min 0 W/m 9,7 km/h (2 Bft) 91,49 %
02.03.2022 19:34 6,1 C 5,0 C 0,6 C 60 % 1021,4 hPa 0,0 l/m 0 min 0 min 0 W/m 6,4 km/h (2 Bft) 93,62 %
02.03.2022 19:36 6,1 C 5,0 C 0,6 C 60 % 1021,4 hPa 0,0 l/m 0 min 0 min 0 W/m 3,2 km/h (1 Bft) 93,48 %
02.03.2022 19:38 6,1 C 5,0 C 0,6 C 60 % 1021,4 hPa 0,0 l/m 0 min 0 min 0 W/m 3,2 km/h (1 Bft) 93,62 %
02.03.2022 19:40 6,1 C 5,0 C 1,1 C 60 % 1021,4 hPa 0,0 l/m 0 min 0 min 0 W/m 3,2 km/h (1 Bft) 93,62 %
02.03.2022 19:42 6,0 C 5,0 C 1,1 C 60 % 1021,4 hPa 0,0 l/m 0 min 0 min 0 W/m 3,2 km/h (1 Bft) 91,49 %
02.03.2022 19:44 6,0 C 5,0 C 1,1 C 60 % 1021,3 hPa 0,0 l/m 0 min 0 min 0 W/m 3,2 km/h (1 Bft) 95,74 %
02.03.2022 19:46 5,9 C 5,0 C 1,1 C 60 % 1021,4 hPa 0,0 l/m 0 min 0 min 0 W/m 6,4 km/h (2 Bft) 89,36 %
02.03.2022 19:48 5,9 C 5,0 C 0,6 C 61 % 1021,3 hPa 0,0 l/m 0 min 0 min 0 W/m 3,2 km/h (1 Bft) 95,74 %
02.03.2022 19:50 5,9 C 5,0 C 0,6 C 61 % 1021,4 hPa 0,0 l/m 0 min 0 min 0 W/m 3,2 km/h (1 Bft) 95,65 %
02.03.2022 19:52 5,9 C 4,4 C 0,6 C 61 % 1021,4 hPa 0,0 l/m 0 min 0 min 0 W/m 0,0 km/h (0 Bft) 95,74 %
02.03.2022 19:54 5,9 C 4,4 C 0,6 C 61 % 1021,3 hPa 0,0 l/m 0 min 0 min 0 W/m 3,2 km/h (1 Bft) 97,87 %
02.03.2022 19:56 5,8 C 4,4 C 0,6 C 61 % 1021,4 hPa 0,0 l/m 0 min 0 min 0 W/m 0,0 km/h (0 Bft) 97,87 %
02.03.2022 19:58 5,8 C 4,4 C 0,6 C 61 % 1021,3 hPa 0,0 l/m 0 min 0 min 0 W/m 0,0 km/h (0 Bft) 100,00 %
02.03.2022 20:00 5,8 C 4,4 C 0,6 C 61 % 1021,3 hPa 0,0 l/m 0 min 0 min 0 W/m 0,0 km/h (0 Bft) 100,00 %
02.03.2022 20:02 5,8 C 4,4 C 0,6 C 61 % 1021,4 hPa 0,0 l/m 0 min 0 min 0 W/m 0,0 km/h (0 Bft) 97,87 %
02.03.2022 20:04 5,8 C 3,9 C 0,6 C 61 % 1021,3 hPa 0,0 l/m 0 min 0 min 0 W/m 0,0 km/h (0 Bft) 100,00 %
02.03.2022 20:09 5,7 C 3,9 C 0,0 C 61 % 1021,3 hPa 0,0 l/m 0 min 0 min 0 W/m 3,2 km/h (1 Bft) 100,00 %
02.03.2022 20:10 5,7 C 3,9 C 0,0 C 61 % 1021,3 hPa 0,0 l/m 0 min 0 min 0 W/m 0,0 km/h (0 Bft) 100,00 %
02.03.2022 20:12 5,7 C 3,9 C 0,0 C 61 % 1021,4 hPa 0,0 l/m 0 min 0 min 0 W/m 3,2 km/h (1 Bft) 97,83 %
02.03.2022 20:14 5,7 C 3,9 C 0,0 C 61 % 1021,3 hPa 0,0 l/m 0 min 0 min 0 W/m 0,0 km/h (0 Bft) 100,00 %
02.03.2022 20:16 5,6 C 3,9 C 0,0 C 61 % 1021,3 hPa 0,0 l/m 0 min 0 min 0 W/m 0,0 km/h (0 Bft) 95,74 %
02.03.2022 20:18 5,6 C 3,9 C -0,6 C 61 % 1021,3 hPa 0,0 l/m 0 min 0 min 0 W/m 0,0 km/h (0 Bft) 100,00 %
02.03.2022 20:20 5,6 C 3,9 C -0,6 C 62 % 1021,4 hPa 0,0 l/m 0 min 0 min 0 W/m 0,0 km/h (0 Bft) 97,87 %
02.03.2022 20:22 5,5 C 3,9 C -0,6 C 62 % 1021,4 hPa 0,0 l/m 0 min 0 min 0 W/m 0,0 km/h (0 Bft) 100,00 %
02.03.2022 20:24 5,4 C 3,3 C -0,6 C 62 % 1021,4 hPa 0,0 l/m 0 min 0 min 0 W/m 0,0 km/h (0 Bft) 100,00 %
02.03.2022 20:26 5,4 C 3,3 C -0,6 C 62 % 1021,4 hPa 0,0 l/m 0 min 0 min 0 W/m 0,0 km/h (0 Bft) 100,00 %
02.03.2022 20:28 5,4 C 3,3 C -0,6 C 62 % 1021,3 hPa 0,0 l/m 0 min 0 min 0 W/m 0,0 km/h (0 Bft) 100,00 %
02.03.2022 20:30 5,3 C 3,3 C -0,6 C 62 % 1021,4 hPa 0,0 l/m 0 min 0 min 0 W/m 0,0 km/h (0 Bft) 100,00 %
02.03.2022 20:32 5,3 C 3,3 C -0,6 C 63 % 1021,4 hPa 0,0 l/m 0 min 0 min 0 W/m 0,0 km/h (0 Bft) 100,00 %
02.03.2022 20:34 5,2 C 3,3 C -0,6 C 63 % 1021,4 hPa 0,0 l/m 0 min 0 min 0 W/m 0,0 km/h (0 Bft) 100,00 %
02.03.2022 20:36 5,2 C 3,3 C -1,1 C 63 % 1021,3 hPa 0,0 l/m 0 min 0 min 0 W/m 0,0 km/h (0 Bft) 100,00 %
02.03.2022 20:38 5,2 C 3,3 C -1,1 C 63 % 1021,3 hPa 0,0 l/m 0 min 0 min 0 W/m 0,0 km/h (0 Bft) 100,00 %
02.03.2022 20:40 5,1 C 3,3 C -1,1 C 64 % 1021,4 hPa 0,0 l/m 0 min 0 min 0 W/m 0,0 km/h (0 Bft) 95,74 %
02.03.2022 20:42 5,1 C 3,3 C -1,1 C 64 % 1021,3 hPa 0,0 l/m 0 min 0 min 0 W/m 0,0 km/h (0 Bft) 100,00 %
02.03.2022 20:44 5,0 C 2,8 C -1,1 C 65 % 1021,3 hPa 0,0 l/m 0 min 0 min 0 W/m 0,0 km/h (0 Bft) 100,00 %
02.03.2022 20:46 4,9 C 2,8 C -1,1 C 65 % 1021,3 hPa 0,0 l/m 0 min 0 min 0 W/m 0,0 km/h (0 Bft) 96,23 %
02.03.2022 20:48 4,9 C 2,8 C -1,1 C 66 % 1021,3 hPa 0,0 l/m 0 min 0 min 0 W/m 0,0 km/h (0 Bft) 100,00 %
02.03.2022 20:50 4,8 C 2,8 C -1,1 C 66 % 1021,3 hPa 0,0 l/m 0 min 0 min 0 W/m 0,0 km/h (0 Bft) 100,00 %
02.03.2022 20:52 4,8 C 2,8 C -1,7 C 66 % 1021,3 hPa 0,0 l/m 0 min 0 min 0 W/m 0,0 km/h (0 Bft) 97,96 %
02.03.2022 20:54 4,8 C 2,8 C -1,7 C 66 % 1021,2 hPa 0,0 l/m 0 min 0 min 0 W/m 0,0 km/h (0 Bft) 97,87 %
02.03.2022 20:56 4,7 C 2,8 C -1,7 C 66 % 1021,3 hPa 0,0 l/m 0 min 0 min 0 W/m 0,0 km/h (0 Bft) 97,87 %
02.03.2022 20:58 4,7 C 2,8 C -1,7 C 66 % 1021,2 hPa 0,0 l/m 0 min 0 min 0 W/m 0,0 km/h (0 Bft) 97,83 %
02.03.2022 21:00 4,6 C 2,8 C -1,7 C 66 % 1021,2 hPa 0,0 l/m 0 min 0 min 0 W/m 0,0 km/h (0 Bft) 97,87 %
02.03.2022 21:02 4,6 C 2,8 C -1,7 C 66 % 1021,2 hPa 0,0 l/m 0 min 0 min 0 W/m 0,0 km/h (0 Bft) 95,74 %
02.03.2022 21:04 4,5 C 2,8 C -1,7 C 66 % 1021,2 hPa 0,0 l/m 0 min 0 min 0 W/m 0,0 km/h (0 Bft) 95,74 %
02.03.2022 21:06 4,4 C 2,8 C -1,7 C 67 % 1021,2 hPa 0,0 l/m 0 min 0 min 0 W/m 0,0 km/h (0 Bft) 94,44 %
02.03.2022 21:08 4,4 C 2,8 C -1,7 C 66 % 1021,2 hPa 0,0 l/m 0 min 0 min 0 W/m 0,0 km/h (0 Bft) 94,74 %
02.03.2022 21:10 4,4 C 2,8 C -1,7 C 66 % 1021,2 hPa 0,0 l/m 0 min 0 min 0 W/m 0,0 km/h (0 Bft) 95,65 %
02.03.2022 21:12 4,3 C 2,8 C -1,7 C 66 % 1021,2 hPa 0,0 l/m 0 min 0 min 0 W/m 0,0 km/h (0 Bft) 93,88 %
02.03.2022 21:14 4,3 C 2,8 C -1,7 C 67 % 1021,2 hPa 0,0 l/m 0 min 0 min 0 W/m 0,0 km/h (0 Bft) 95,74 %
02.03.2022 21:16 4,3 C 2,8 C -1,7 C 67 % 1021,2 hPa 0,0 l/m 0 min 0 min 0 W/m 0,0 km/h (0 Bft) 95,74 %
02.03.2022 21:18 4,2 C 2,8 C -1,7 C 67 % 1021,2 hPa 0,0 l/m 0 min 0 min 0 W/m 0,0 km/h (0 Bft) 97,87 %
02.03.2022 21:20 4,2 C 2,2 C -1,7 C 67 % 1021,2 hPa 0,0 l/m 0 min 0 min 0 W/m 0,0 km/h (0 Bft) 96,23 %
02.03.2022 21:22 4,1 C 2,2 C -1,7 C 67 % 1021,2 hPa 0,0 l/m 0 min 0 min 0 W/m 3,2 km/h (1 Bft) 97,37 %
02.03.2022 21:24 4,1 C 2,2 C -1,7 C 67 % 1021,2 hPa 0,0 l/m 0 min 0 min 0 W/m 0,0 km/h (0 Bft) 97,96 %
02.03.2022 21:26 4,1 C 2,2 C -1,7 C 67 % 1021,2 hPa 0,0 l/m 0 min 0 min 0 W/m 3,2 km/h (1 Bft) 97,87 %
02.03.2022 21:28 4,0 C 2,2 C -1,7 C 68 % 1021,2 hPa 0,0 l/m 0 min 0 min 0 W/m 3,2 km/h (1 Bft) 100,00 %
02.03.2022 21:30 3,9 C 2,2 C -1,7 C 68 % 1021,3 hPa 0,0 l/m 0 min 0 min 0 W/m 3,2 km/h (1 Bft) 100,00 %
02.03.2022 21:32 3,9 C 2,2 C -1,7 C 68 % 1021,3 hPa 0,0 l/m 0 min 0 min 0 W/m 3,2 km/h (1 Bft) 97,87 %
02.03.2022 21:34 3,9 C 2,2 C -1,7 C 68 % 1021,3 hPa 0,0 l/m 0 min 0 min 0 W/m 3,2 km/h (1 Bft) 100,00 %
02.03.2022 21:36 3,8 C 2,2 C -1,7 C 68 % 1021,3 hPa 0,0 l/m 0 min 0 min 0 W/m 3,2 km/h (1 Bft) 100,00 %
02.03.2022 21:38 3,8 C 2,2 C -1,7 C 69 % 1021,3 hPa 0,0 l/m 0 min 0 min 0 W/m 0,0 km/h (0 Bft) 100,00 %
02.03.2022 21:40 3,8 C 2,2 C -1,7 C 69 % 1021,4 hPa 0,0 l/m 0 min 0 min 0 W/m 0,0 km/h (0 Bft) 100,00 %
02.03.2022 21:42 3,7 C 2,2 C -1,7 C 69 % 1021,3 hPa 0,0 l/m 0 min 0 min 0 W/m 0,0 km/h (0 Bft) 98,11 %
02.03.2022 21:44 3,7 C 2,2 C -1,7 C 69 % 1021,3 hPa 0,0 l/m 0 min 0 min 0 W/m 0,0 km/h (0 Bft) 100,00 %
02.03.2022 21:46 3,7 C 2,2 C -1,7 C 69 % 1021,3 hPa 0,0 l/m 0 min 0 min 0 W/m 0,0 km/h (0 Bft) 100,00 %
02.03.2022 21:48 3,7 C 2,2 C -1,7 C 69 % 1021,3 hPa 0,0 l/m 0 min 0 min 0 W/m 0,0 km/h (0 Bft) 100,00 %
02.03.2022 21:50 3,6 C 2,2 C -1,7 C 69 % 1021,3 hPa 0,0 l/m 0 min 0 min 0 W/m 0,0 km/h (0 Bft) 100,00 %
02.03.2022 21:52 3,6 C 2,2 C -2,2 C 69 % 1021,3 hPa 0,0 l/m 0 min 0 min 0 W/m 0,0 km/h (0 Bft) 100,00 %
02.03.2022 21:54 3,6 C 2,2 C -2,2 C 70 % 1021,3 hPa 0,0 l/m 0 min 0 min 0 W/m 0,0 km/h (0 Bft) 100,00 %
02.03.2022 21:56 3,5 C 1,7 C -2,2 C 70 % 1021,4 hPa 0,0 l/m 0 min 0 min 0 W/m 0,0 km/h (0 Bft) 100,00 %
02.03.2022 21:58 3,5 C 1,7 C -2,2 C 70 % 1021,3 hPa 0,0 l/m 0 min 0 min 0 W/m 0,0 km/h (0 Bft) 100,00 %
02.03.2022 22:00 3,4 C 1,7 C -2,2 C 70 % 1021,3 hPa 0,0 l/m 0 min 0 min 0 W/m 0,0 km/h (0 Bft) 100,00 %
02.03.2022 22:02 3,4 C 1,7 C -2,2 C 70 % 1021,3 hPa 0,0 l/m 0 min 0 min 0 W/m 0,0 km/h (0 Bft) 97,87 %
02.03.2022 22:04 3,4 C 1,7 C -2,2 C 70 % 1021,3 hPa 0,0 l/m 0 min 0 min 0 W/m 0,0 km/h (0 Bft) 100,00 %
02.03.2022 22:06 3,3 C 1,7 C -2,2 C 70 % 1021,3 hPa 0,0 l/m 0 min 0 min 0 W/m 0,0 km/h (0 Bft) 100,00 %
02.03.2022 22:08 3,3 C 1,7 C -2,2 C 71 % 1021,3 hPa 0,0 l/m 0 min 0 min 0 W/m 3,2 km/h (1 Bft) 100,00 %
02.03.2022 22:10 3,3 C 1,7 C -2,2 C 71 % 1021,3 hPa 0,0 l/m 0 min 0 min 0 W/m 0,0 km/h (0 Bft) 100,00 %
02.03.2022 22:12 3,2 C 1,7 C -2,2 C 71 % 1021,3 hPa 0,0 l/m 0 min 0 min 0 W/m 0,0 km/h (0 Bft) 100,00 %
02.03.2022 22:14 3,2 C 1,7 C -2,2 C 71 % 1021,3 hPa 0,0 l/m 0 min 0 min 0 W/m 0,0 km/h (0 Bft) 100,00 %
02.03.2022 22:16 3,2 C 1,7 C -2,2 C 71 % 1021,3 hPa 0,0 l/m 0 min 0 min 0 W/m 0,0 km/h (0 Bft) 97,87 %
02.03.2022 22:18 3,2 C 1,7 C -2,2 C 71 % 1021,3 hPa 0,0 l/m 0 min 0 min 0 W/m 0,0 km/h (0 Bft) 97,83 %
02.03.2022 22:20 3,1 C 1,7 C -2,2 C 71 % 1021,2 hPa 0,0 l/m 0 min 0 min 0 W/m 0,0 km/h (0 Bft) 97,37 %
02.03.2022 22:22 3,1 C 1,7 C -2,2 C 71 % 1021,3 hPa 0,0 l/m 0 min 0 min 0 W/m 0,0 km/h (0 Bft) 97,96 %
02.03.2022 22:24 3,1 C 1,7 C -2,2 C 71 % 1021,2 hPa 0,0 l/m 0 min 0 min 0 W/m 0,0 km/h (0 Bft) 95,74 %
02.03.2022 22:26 3,0 C 1,7 C -2,2 C 72 % 1021,2 hPa 0,0 l/m 0 min 0 min 0 W/m 3,2 km/h (1 Bft) 97,87 %
02.03.2022 22:28 3,0 C 2,2 C -2,2 C 72 % 1021,2 hPa 0,0 l/m 0 min 0 min 0 W/m 3,2 km/h (1 Bft) 97,87 %
02.03.2022 22:30 3,0 C 1,7 C -2,2 C 72 % 1021,2 hPa 0,0 l/m 0 min 0 min 0 W/m 0,0 km/h (0 Bft) 95,65 %
02.03.2022 22:32 2,9 C 1,7 C -2,2 C 73 % 1021,2 hPa 0,0 l/m 0 min 0 min 0 W/m 0,0 km/h (0 Bft) 93,62 %
02.03.2022 22:34 2,9 C 1,7 C -2,2 C 73 % 1021,3 hPa 0,0 l/m 0 min 0 min 0 W/m 0,0 km/h (0 Bft) 96,30 %
02.03.2022 22:36 2,9 C 1,7 C -2,2 C 73 % 1021,2 hPa 0,0 l/m 0 min 0 min 0 W/m 3,2 km/h (1 Bft) 94,74 %
02.03.2022 22:38 2,9 C 1,7 C -2,2 C 73 % 1021,2 hPa 0,0 l/m 0 min 0 min 0 W/m 0,0 km/h (0 Bft) 93,88 %
02.03.2022 22:40 2,8 C 1,7 C -2,2 C 73 % 1021,2 hPa 0,0 l/m 0 min 0 min 0 W/m 0,0 km/h (0 Bft) 95,74 %
02.03.2022 22:42 2,8 C 1,7 C -2,2 C 73 % 1021,2 hPa 0,0 l/m 0 min 0 min 0 W/m 0,0 km/h (0 Bft) 95,65 %
02.03.2022 22:44 2,8 C 1,7 C -2,2 C 73 % 1021,2 hPa 0,0 l/m 0 min 0 min 0 W/m 0,0 km/h (0 Bft) 97,87 %
02.03.2022 22:46 2,8 C 1,7 C -2,2 C 73 % 1021,2 hPa 0,0 l/m 0 min 0 min 0 W/m 0,0 km/h (0 Bft) 96,30 %
02.03.2022 22:48 2,8 C 1,1 C -2,2 C 73 % 1021,2 hPa 0,0 l/m 0 min 0 min 0 W/m 0,0 km/h (0 Bft) 97,87 %
02.03.2022 22:50 2,7 C 1,1 C -2,2 C 73 % 1021,2 hPa 0,0 l/m 0 min 0 min 0 W/m 0,0 km/h (0 Bft) 97,87 %
02.03.2022 22:52 2,7 C 1,1 C -2,2 C 73 % 1021,2 hPa 0,0 l/m 0 min 0 min 0 W/m 0,0 km/h (0 Bft) 97,83 %
02.03.2022 22:54 2,7 C 1,1 C -2,2 C 73 % 1021,2 hPa 0,0 l/m 0 min 0 min 0 W/m 3,2 km/h (1 Bft) 100,00 %
02.03.2022 22:56 2,6 C 1,7 C -2,2 C 73 % 1021,2 hPa 0,0 l/m 0 min 0 min 0 W/m 3,2 km/h (1 Bft) 100,00 %
02.03.2022 22:58 2,6 C 1,7 C -2,2 C 73 % 1021,2 hPa 0,0 l/m 0 min 0 min 0 W/m 0,0 km/h (0 Bft) 100,00 %
02.03.2022 23:00 2,6 C 1,7 C -2,2 C 74 % 1021,2 hPa 0,0 l/m 0 min 0 min 0 W/m 0,0 km/h (0 Bft) 100,00 %
02.03.2022 23:02 2,6 C 1,7 C -2,2 C 74 % 1021,2 hPa 0,0 l/m 0 min 0 min 0 W/m 0,0 km/h (0 Bft) 100,00 %
02.03.2022 23:04 2,5 C 1,7 C -2,2 C 74 % 1021,2 hPa 0,0 l/m 0 min 0 min 0 W/m 0,0 km/h (0 Bft) 97,83 %
02.03.2022 23:06 2,5 C 1,7 C -2,2 C 74 % 1021,2 hPa 0,0 l/m 0 min 0 min 0 W/m 0,0 km/h (0 Bft) 100,00 %
02.03.2022 23:08 2,5 C 1,7 C -2,2 C 74 % 1021,1 hPa 0,0 l/m 0 min 0 min 0 W/m 0,0 km/h (0 Bft) 97,87 %
02.03.2022 23:10 2,5 C 1,7 C -2,2 C 74 % 1021,2 hPa 0,0 l/m 0 min 0 min 0 W/m 3,2 km/h (1 Bft) 100,00 %
02.03.2022 23:12 2,5 C 2,2 C -2,2 C 74 % 1021,2 hPa 0,0 l/m 0 min 0 min 0 W/m 3,2 km/h (1 Bft) 100,00 %
02.03.2022 23:14 2,5 C 2,2 C -2,2 C 74 % 1021,1 hPa 0,0 l/m 0 min 0 min 0 W/m 0,0 km/h (0 Bft) 100,00 %
02.03.2022 23:16 2,5 C 2,2 C -2,2 C 73 % 1021,2 hPa 0,0 l/m 0 min 0 min 0 W/m 3,2 km/h (1 Bft) 100,00 %
02.03.2022 23:18 2,5 C 2,2 C -2,2 C 73 % 1021,2 hPa 0,0 l/m 0 min 0 min 0 W/m 3,2 km/h (1 Bft) 100,00 %
02.03.2022 23:20 2,5 C 2,2 C -2,2 C 73 % 1021,1 hPa 0,0 l/m 0 min 0 min 0 W/m 0,0 km/h (0 Bft) 97,96 %
02.03.2022 23:22 2,5 C 2,2 C -2,2 C 73 % 1021,2 hPa 0,0 l/m 0 min 0 min 0 W/m 0,0 km/h (0 Bft) 97,87 %
02.03.2022 23:24 2,5 C 2,2 C -2,2 C 73 % 1021,2 hPa 0,0 l/m 0 min 0 min 0 W/m 0,0 km/h (0 Bft) 100,00 %
02.03.2022 23:26 2,6 C 2,2 C -2,2 C 73 % 1021,2 hPa 0,0 l/m 0 min 0 min 0 W/m 0,0 km/h (0 Bft) 97,87 %
02.03.2022 23:28 2,6 C 2,2 C -2,2 C 73 % 1021,2 hPa 0,0 l/m 0 min 0 min 0 W/m 0,0 km/h (0 Bft) 96,23 %
02.03.2022 23:30 2,6 C 2,2 C -2,2 C 73 % 1021,2 hPa 0,0 l/m 0 min 0 min 0 W/m 3,2 km/h (1 Bft) 97,87 %
02.03.2022 23:32 2,6 C 2,2 C -2,2 C 73 % 1021,1 hPa 0,0 l/m 0 min 0 min 0 W/m 3,2 km/h (1 Bft) 95,74 %
02.03.2022 23:34 2,6 C 2,2 C -2,2 C 73 % 1021,1 hPa 0,0 l/m 0 min 0 min 0 W/m 3,2 km/h (1 Bft) 97,87 %
02.03.2022 23:36 2,6 C 2,2 C -2,2 C 73 % 1021,1 hPa 0,0 l/m 0 min 0 min 0 W/m 3,2 km/h (1 Bft) 97,87 %
02.03.2022 23:38 2,7 C 2,2 C -1,7 C 73 % 1021,1 hPa 0,0 l/m 0 min 0 min 0 W/m 3,2 km/h (1 Bft) 97,83 %
02.03.2022 23:40 2,7 C 2,2 C -1,7 C 72 % 1021,1 hPa 0,0 l/m 0 min 0 min 0 W/m 3,2 km/h (1 Bft) 97,87 %
02.03.2022 23:42 2,7 C 2,8 C -1,7 C 72 % 1021,0 hPa 0,0 l/m 0 min 0 min 0 W/m 6,4 km/h (2 Bft) 97,87 %
02.03.2022 23:44 2,8 C 2,8 C -1,1 C 72 % 1021,0 hPa 0,0 l/m 0 min 0 min 0 W/m 6,4 km/h (2 Bft) 97,87 %
02.03.2022 23:46 2,8 C 2,8 C -1,1 C 71 % 1021,0 hPa 0,0 l/m 0 min 0 min 0 W/m 3,2 km/h (1 Bft) 95,74 %
02.03.2022 23:48 2,9 C 2,8 C -1,1 C 71 % 1021,0 hPa 0,0 l/m 0 min 0 min 0 W/m 3,2 km/h (1 Bft) 95,74 %
02.03.2022 23:50 2,9 C 2,8 C -1,1 C 71 % 1021,0 hPa 0,0 l/m 0 min 0 min 0 W/m 3,2 km/h (1 Bft) 97,83 %
02.03.2022 23:52 2,9 C 2,8 C -1,1 C 70 % 1021,0 hPa 0,0 l/m 0 min 0 min 0 W/m 12,9 km/h (3 Bft) 95,74 %
02.03.2022 23:54 3,1 C 2,8 C -1,1 C 70 % 1021,1 hPa 0,0 l/m 0 min 0 min 0 W/m 3,2 km/h (1 Bft) 95,74 %
02.03.2022 23:56 3,1 C 2,8 C -1,1 C 70 % 1021,1 hPa 0,0 l/m 0 min 0 min 0 W/m 3,2 km/h (1 Bft) 95,74 %
02.03.2022 23:58 3,1 C 2,8 C -1,1 C 70 % 1021,1 hPa 0,0 l/m 0 min 0 min 0 W/m 3,2 km/h (1 Bft) 93,62 %
_ Min-Zeit 07:14 06:56 07:08 15:04 23:42 - - - - 01:32 16:54
Minimum _ 1,1 C 0,0 C -3,3 C 37 % 1021,0 hPa - - - - 0,0 km/h (0 Bft) 50,00 %
_ Max-Zeit 14:26 13:44 11:28 09:00 00:00 00:00 07:34 00:00 12:48 12:02 00:40
Maximum _ 13,5 C 27,2 C 12,8 C 78 % 1027,2 hPa 0,0 l/m 2 min 0 min 589 W/m 19,3 km/h
S-SO (3 Bft)
100,00 %
Durchschnitt _ 6,2 C 7,6 C 1,5 C 61 % 1023,7 hPa #0,0 l/m #7:28 h #0 min. 282 W/m 4,3 km/h (1 Bft) 97,30 %
© 2022 W. Hausmann